GFSWCAN_sfc_rhum_072.txt.gz
RH
68 62 60 64 69 70 71 75 69 68 70 70 70 71 71 72 74 92 94 94 92 96 72 82 78 85 96 93 97 88 90 93 96 97 96 94 96 81 80 70 84 83 93 98 89 92 89 84 79 78 93 87 83 81
71 65 66 71 72 72 75 69 69 72 71 72 73 74 75 76 77 82 96 91 93 96 88 94 88 76 69 73 87 88 93 93 99 98 96 96 98 97 94 91 95 88 85 89 80 81 86 81 83 77 84 92 89 94
80 63 68 68 72 78 70 70 74 71 70 72 74 76 77 80 77 80 98 94 98 100 89 92 84 69 75 72 69 95 91 87 100 98 100 99 96 99 95 96 92 88 89 100 100 91 86 82 79 82 75 76 87 92
70 68 66 69 76 72 74 73 70 70 73 76 77 78 78 78 79 81 98 93 93 96 97 86 68 81 68 70 74 70 73 78 82 96 100 99 99 94 88 96 95 99 99 95 98 98 96 97 98 97 89 88 90 88
67 70 71 70 77 74 72 71 73 75 77 78 78 79 79 80 80 88 98 94 88 88 97 93 81 70 68 75 76 78 80 83 92 92 99 95 90 96 98 98 99 99 100 98 99 99 100 100 99 96 94 95 85 80
70 74 76 76 73 73 74 75 75 77 80 81 82 83 84 88 91 100 100 99 92 95 98 96 82 82 79 81 82 87 84 90 94 100 96 92 90 99 99 98 99 98 99 98 100 100 99 97 96 93 92 94 96 95
78 77 73 73 75 74 72 76 78 80 83 84 86 89 90 90 96 99 95 94 92 96 98 99 96 82 86 88 95 94 90 91 92 90 94 94 94 96 99 97 98 98 97 95 96 99 94 93 92 88 76 74 76 74
76 75 74 77 72 71 74 81 83 82 84 88 94 91 88 88 90 97 97 89 87 96 88 93 92 94 92 96 97 96 98 97 96 93 96 98 91 99 97 97 94 93 95 80 75 74 76 74 73 72 68 72 76 77
74 72 73 75 74 74 78 84 82 84 89 92 90 83 92 93 98 99 82 81 94 87 98 91 96 93 98 96 96 99 94 98 94 99 99 94 98 96 97 92 92 89 89 92 75 74 74 78 81 77 74 74 78 78
71 73 76 78 79 80 83 82 85 92 91 85 86 89 98 99 79 80 92 96 96 94 98 98 94 98 97 99 98 96 97 98 94 92 98 98 98 93 89 89 90 85 85 85 90 85 85 85 81 80 84 81 76 78
72 73 78 79 80 80 80 85 92 86 76 93 96 96 95 82 94 92 98 98 99 96 96 91 96 98 96 99 99 95 95 94 87 99 99 98 98 95 89 86 85 88 88 90 89 90 88 82 81 80 82 83 84 84
70 72 76 77 81 87 88 92 86 89 92 89 91 93 98 92 97 85 94 91 96 86 96 98 96 95 96 95 99 99 98 99 97 98 98 98 96 92 88 88 88 88 89 86 82 84 83 81 85 85 86 89 91 92
76 81 89 91 90 90 92 88 73 78 76 92 90 88 87 98 98 95 99 84 92 96 98 100 100 98 97 100 99 97 98 97 98 97 98 98 91 86 84 78 84 83 84 86 90 89 88 92 89 91 94 97 95 97
93 91 91 94 95 93 88 82 82 85 92 86 91 99 97 96 90 88 95 98 99 100 100 100 99 99 98 95 97 86 98 97 96 97 94 98 95 93 86 88 85 97 96 96 96 95 96 96 98 97 98 97 95 97
92 94 94 95 91 90 82 81 74 84 86 86 86 99 97 97 99 98 98 99 98 99 100 99 98 96 91 85 92 92 95 97 97 97 98 98 98 96 97 96 96 97 98 98 97 96 96 95 96 97 96 94 94 94
92 94 93 91 87 84 79 73 82 80 89 89 93 95 98 97 98 99 99 99 99 100 99 96 98 92 97 96 91 97 96 98 94 99 99 98 100 100 100 98 98 97 96 97 96 96 96 96 96 98 96 96 94 90
94 97 90 89 81 72 71 88 96 88 93 92 98 98 99 98 99 99 98 98 98 99 100 96 91 90 87 96 97 98 97 97 99 99 100 98 98 99 98 97 96 96 96 96 96 96 96 96 92 84 89 91 85 90
96 94 89 70 60 67 75 84 95 86 96 98 97 98 100 100 99 99 98 97 98 94 94 94 87 93 99 94 99 98 99 99 99 100 100 100 99 98 95 96 96 96 96 96 95 95 92 90 81 85 85 82 86 87
89 73 70 68 70 86 90 79 78 94 98 98 98 98 99 99 97 96 97 92 89 85 85 90 93 98 99 99 99 100 100 99 98 99 99 98 96 96 96 96 96 96 96 95 91 95 94 94 97 98 95 84 96 97
75 78 75 70 68 77 78 90 80 84 96 97 97 99 99 98 98 98 95 86 82 85 91 96 99 99 100 99 98 98 98 94 93 97 98 98 98 97 98 98 98 96 93 90 93 93 94 96 96 98 98 96 98 98
78 78 75 74 82 81 86 91 95 97 95 96 98 97 99 96 95 96 96 80 92 97 99 99 98 99 100 100 97 95 98 93 96 96 95 97 98 97 97 96 92 92 94 98 98 98 97 98 96 90 98 100 100 100
96 79 87 81 80 80 84 90 91 94 94 95 99 92 98 97 97 96 91 93 99 98 98 99 99 98 98 98 99 94 94 93 95 97 97 96 98 99 100 100 95 99 98 98 97 98 99 99 98 98 100 100 100 100
87 89 99 95 86 83 90 96 92 91 95 99 94 91 98 98 94 86 99 98 98 98 99 98 97 92 95 96 92 92 90 89 97 97 97 97 97 100 98 98 98 98 99 98 96 98 99 100 100 100 100 100 100 100
73 90 91 92 89 99 95 100 91 94 98 96 93 99 96 99 89 95 100 100 98 98 97 96 92 95 94 92 98 99 95 90 95 97 95 90 95 99 98 99 99 99 98 98 98 100 99 100 100 100 100 100 100 100
86 89 91 100 98 96 98 98 98 94 100 98 98 100 99 95 98 100 98 99 98 99 98 96 94 94 98 100 99 98 93 87 91 96 100 94 97 97 98 96 99 99 98 100 100 100 100 100 100 100 100 100 100 96
93 95 93 97 97 94 96 100 99 97 98 98 96 98 97 96 95 98 96 98 97 99 98 96 97 97 97 94 96 97 97 91 86 98 98 97 97 95 100 99 99 99 99 100 100 100 100 100 100 100 100 100 100 100
95 98 95 82 93 92 96 96 92 95 99 99 99 98 94 98 100 98 99 100 99 100 97 96 91 92 93 96 96 97 96 93 93 92 94 92 94 97 96 98 100 97 100 100 100 100 100 100 100 100 100 100 100 100
96 91 94 97 95 91 98 100 100 100 100 94 89 99 95 92 97 98 98 98 98 96 96 96 94 92 95 97 98 94 97 96 96 96 95 95 98 100 100 100 100 100 100 100 100 100 100 100 100 100 100 100 100 100
94 94 86 97 93 96 99 100 100 98 95 96 98 100 100 98 98 99 97 98 97 92 95 96 100 100 98 98 100 100 100 99 97 100 100 100 100 100 100 100 100 100 100 100 100 100 100 100 100 100 100 100 100 100
95 96 96 99 100 100 99 99 99 98 96 98 98 94 93 98 97 97 97 97 96 98 100 95 99 97 99 98 100 100 100 100 100 98 100 100 98 100 100 100 100 100 100 100 100 100 100 100 100 100 100 100 100 100
91 96 97 98 100 99 98 100 99 98 98 99 99 98 99 98 97 96 96 97 96 95 95 100 100 100 98 100 100 100 100 100 100 100 100 100 100 100 100 100 100 100 100 100 100 100 100 100 100 100 100 100 100 100
98 100 97 100 100 98 99 100 98 99 98 98 99 100 96 96 100 97 98 98 97 97 100 97 96 96 100 99 99 100 99 100 100 100 100 100 100 100 100 100 100 100 100 100 100 100 100 100 100 100 100 100 100 100
98 100 100 100 99 100 99 95 99 98 99 99 100 100 100 96 96 97 98 98 97 96 97 100 100 100 100 100 100 100 100 100 100 100 100 100 100 100 100 100 100 100 100 100 100 100 100 100 100 100 100 100 100 100

GFSWCAN_sfc_rhum_075.txt.gz
RH
69 71 70 65 63 64 66 69 70 71 76 69 68 68 70 73 72 92 92 94 91 95 74 76 78 77 89 86 87 80 83 85 89 92 94 95 89 81 74 63 78 68 83 88 75 79 77 79 72 72 91 86 84 83
79 72 70 67 63 67 67 72 76 75 73 72 72 72 74 73 74 83 96 89 88 94 78 82 77 70 68 67 78 82 87 88 91 96 85 89 91 87 86 69 79 78 78 78 68 67 84 78 88 83 85 90 91 91
75 76 71 66 66 68 75 75 76 72 74 73 72 72 73 74 75 81 98 94 98 100 89 91 75 64 76 76 66 87 83 79 100 99 100 99 95 96 90 83 81 74 93 100 100 96 93 92 85 87 89 95 94 89
74 75 85 67 67 72 74 73 76 75 75 71 70 72 74 76 78 79 97 91 93 98 96 78 66 74 66 72 74 67 63 77 79 87 92 98 94 84 83 93 92 98 98 96 100 99 98 98 98 97 94 93 93 96
78 78 73 70 69 72 71 75 79 75 70 70 72 75 76 76 76 87 95 93 82 86 92 84 75 69 68 76 80 79 81 82 87 86 93 92 84 94 90 96 94 99 100 98 99 99 96 96 96 94 92 94 94 84
84 75 73 69 73 73 73 77 73 71 71 74 75 75 76 78 79 98 100 99 93 94 99 95 80 74 71 77 79 84 85 87 89 92 97 88 82 97 98 94 97 98 96 99 100 98 95 96 94 92 89 90 92 89
72 68 69 69 74 77 77 74 74 74 74 76 77 80 80 84 96 100 97 90 93 97 99 95 84 75 79 83 90 91 86 90 90 89 88 83 80 82 100 95 95 97 96 95 99 96 92 94 91 86 76 72 72 69
71 70 76 80 78 74 75 76 73 73 75 78 81 81 87 89 92 98 96 90 93 99 94 91 89 85 84 92 95 93 94 92 92 89 91 94 88 95 97 96 95 94 96 92 93 87 83 78 69 69 65 64 68 71
70 78 79 78 78 79 74 72 73 76 79 81 90 86 93 94 99 98 88 88 94 82 93 85 92 91 93 90 94 99 91 98 87 95 94 89 91 96 94 93 92 90 90 91 78 75 74 78 78 72 67 66 69 72
74 80 78 79 77 76 72 72 74 78 79 89 90 90 99 99 86 92 97 97 90 88 94 91 85 96 92 98 94 94 97 90 86 86 93 98 95 89 87 86 83 80 80 78 85 84 79 78 77 76 75 69 68 72
78 78 75 72 72 72 73 74 80 84 90 97 98 98 97 81 91 89 95 94 95 90 87 85 91 95 92 98 97 91 93 86 84 90 87 94 90 88 83 81 80 80 77 82 82 84 83 76 77 76 79 77 76 76
71 70 70 71 73 73 75 80 90 95 95 88 96 97 98 89 91 85 92 91 92 82 94 97 91 93 96 91 99 98 95 95 95 95 95 93 90 87 82 82 82 81 80 80 75 78 80 79 79 81 83 86 88 88
70 70 70 72 76 76 77 87 91 81 75 88 85 90 89 94 99 92 98 82 89 86 94 99 100 99 97 99 100 99 97 95 98 96 93 90 85 84 80 77 80 78 80 81 86 84 84 87 84 85 90 92 91 92
74 72 72 76 76 79 86 90 87 81 85 86 90 99 90 99 94 91 92 93 93 100 100 100 100 100 100 98 97 94 97 97 95 96 93 89 88 86 85 81 80 92 91 90 93 91 93 93 96 94 94 93 93 94
77 78 80 88 90 90 92 85 80 80 80 85 85 98 99 95 98 98 96 95 95 98 100 98 95 94 90 86 89 87 91 94 92 93 93 91 92 91 92 92 95 96 96 96 94 94 95 94 94 94 94 93 92 92
88 92 95 91 93 88 86 81 79 78 85 85 92 97 96 95 97 98 98 99 96 99 99 92 92 91 97 91 86 91 90 92 91 95 93 91 96 97 97 96 97 96 96 96 94 93 93 94 93 94 91 88 89 86
92 99 94 92 90 90 79 90 86 84 89 91 99 97 97 98 98 98 98 96 95 97 98 90 90 92 84 90 92 91 94 93 96 96 93 93 95 98 97 97 96 95 94 94 93 92 92 89 86 80 85 86 80 84
98 94 91 90 70 67 78 93 92 83 96 96 97 98 96 97 97 97 96 94 95 92 87 94 81 94 98 93 90 94 96 96 94 94 94 95 96 96 94 95 96 93 92 93 90 90 85 83 74 74 78 76 77 77
93 92 84 71 75 85 79 87 82 94 97 97 96 96 96 97 95 94 94 88 80 74 76 80 85 89 92 93 95 98 98 94 94 94 94 96 96 96 96 95 95 94 92 89 83 80 82 90 87 79 74 70 75 78
74 76 75 72 66 78 77 86 76 83 95 94 93 96 92 95 94 95 95 85 75 77 86 89 93 95 95 94 90 90 91 89 89 93 94 93 93 95 94 88 87 89 87 88 88 89 81 79 80 83 85 84 87 88
71 80 73 73 82 80 84 86 92 90 90 92 92 92 97 90 92 93 91 77 88 93 94 96 97 97 98 94 88 88 93 85 88 85 85 92 92 87 89 90 88 84 80 82 82 85 86 81 79 76 86 93 94 92
94 79 87 75 80 79 86 86 87 88 90 91 94 85 93 95 93 90 82 89 94 96 95 95 95 92 92 94 93 87 89 89 92 90 93 90 91 91 91 89 83 88 86 88 85 91 90 83 85 83 87 93 92 89
88 88 95 89 81 83 96 93 91 85 94 99 89 89 97 96 90 78 96 92 96 94 94 92 95 89 94 94 90 90 87 85 89 91 92 91 90 94 90 88 86 91 91 85 80 85 90 94 92 95 96 94 94 94
76 93 97 96 89 96 95 100 89 92 96 93 90 97 96 96 81 89 95 94 94 94 92 95 88 92 90 90 91 92 89 84 88 92 85 82 84 87 84 85 85 86 83 78 81 87 86 95 99 91 98 97 97 96
94 96 96 99 95 96 98 100 98 92 100 96 98 100 97 87 94 95 91 94 95 96 95 93 91 88 95 96 93 92 90 80 85 86 91 80 89 86 86 84 88 87 85 92 94 94 95 100 97 95 92 94 92 92
94 95 95 98 97 97 96 100 99 98 97 98 96 95 92 93 94 90 88 96 95 97 97 95 96 94 90 85 90 88 87 78 77 88 88 81 79 86 89 88 87 88 88 94 95 96 98 97 96 95 96 96 100 100
96 98 94 85 92 87 95 95 90 93 99 100 98 97 92 96 97 93 95 94 95 96 87 88 86 86 87 90 88 88 85 84 85 82 87 84 83 82 84 89 91 87 90 92 94 94 96 98 99 99 99 98 98 100
94 91 93 96 94 91 98 99 99 100 100 92 89 97 91 90 94 95 94 94 95 92 93 92 90 86 89 90 90 91 93 92 94 91 87 88 90 94 98 97 98 100 98 98 96 97 94 93 94 97 99 99 98 99
92 92 87 97 95 96 99 100 99 95 91 92 96 100 98 93 96 96 95 92 93 89 94 96 100 96 96 95 98 96 92 90 86 94 96 94 98 94 98 100 99 98 100 98 99 99 99 97 99 100 100 100 100 100
96 95 94 96 97 100 99 97 99 97 92 95 94 90 90 95 97 94 94 95 94 96 96 95 97 94 96 95 100 100 100 100 95 92 95 97 94 94 100 100 100 100 100 96 97 92 95 97 96 96 97 96 96 96
91 96 97 96 100 99 98 99 98 97 96 98 99 97 97 98 96 94 94 95 95 96 94 97 99 96 95 98 97 99 99 100 100 99 97 98 100 100 100 100 100 100 100 100 100 100 100 100 100 100 100 99 96 96
98 100 97 100 99 98 98 99 100 99 98 97 100 100 96 96 99 96 96 96 95 95 95 93 94 95 97 96 96 97 99 100 100 100 100 100 100 100 100 100 100 100 100 100 100 100 99 96 94 93 91 90 92 94
99 100 100 100 99 100 100 95 97 98 98 100 100 100 99 96 96 97 95 96 96 94 95 96 97 95 95 97 99 100 100 100 100 100 100 100 100 100 96 96 95 94 94 94 94 92 88 86 88 90 92 95 95 95

GFSWCAN_sfc_rhum_078.txt.gz
RH
77 77 73 74 75 71 67 67 69 74 74 75 73 76 74 74 76 72 62 68 58 79 50 53 52 55 56 62 69 59 65 69 69 79 78 91 92 62 53 43 51 52 61 68 57 63 59 60 55 61 86 83 76 79
78 77 76 77 73 70 70 70 75 76 76 78 72 69 70 72 77 73 69 65 62 78 55 62 54 48 46 47 58 56 72 84 75 83 72 80 89 73 64 57 51 76 78 72 56 72 73 74 78 85 83 90 90 86
83 79 79 76 72 68 67 72 76 77 76 76 73 72 72 74 76 77 69 71 86 100 67 60 56 47 48 50 46 74 55 57 92 98 96 90 92 76 82 75 66 66 72 86 94 96 96 92 80 85 89 91 84 86
85 88 80 75 72 72 74 75 74 76 77 76 74 72 72 76 74 78 88 80 76 85 84 55 45 54 44 48 52 54 52 49 61 68 81 87 84 65 79 81 79 87 74 88 100 100 98 93 91 79 86 87 90 96
81 82 82 77 73 74 74 75 76 74 77 75 71 69 70 73 75 85 94 79 60 59 78 63 54 47 47 52 57 60 66 66 64 75 84 79 61 74 86 82 87 88 100 96 93 97 96 96 91 84 86 90 96 83
76 74 80 80 75 73 77 78 76 76 77 71 68 69 72 78 76 89 100 98 89 87 99 86 55 57 52 61 59 64 68 72 72 77 78 74 56 72 83 92 93 92 89 99 98 99 97 95 89 81 81 86 90 85
78 78 79 78 74 74 77 79 78 75 72 71 71 74 74 75 92 99 93 81 88 97 100 92 74 58 63 62 66 69 68 72 68 73 73 61 55 61 92 93 94 95 98 97 99 95 90 86 82 74 63 60 60 56
83 82 77 76 74 74 77 80 75 73 73 73 74 75 79 82 93 99 96 91 95 99 99 94 73 70 66 73 77 70 75 75 74 69 68 66 58 71 90 98 95 94 97 91 93 89 80 73 64 59 52 52 55 56
78 78 76 78 77 77 79 78 75 73 72 74 79 87 94 97 100 98 90 89 95 79 85 75 77 84 82 76 78 84 74 89 63 84 72 64 72 87 95 92 92 91 91 91 82 67 61 64 61 57 54 53 56 58
74 76 77 80 80 80 81 77 73 72 75 82 92 99 100 98 89 88 96 98 88 71 70 76 58 85 80 84 87 86 93 77 80 68 70 83 87 83 79 76 76 74 79 83 79 77 68 66 64 62 60 57 57 61
70 72 77 78 80 81 78 73 72 76 91 98 99 99 95 84 78 68 92 81 79 76 61 67 70 76 71 92 89 75 80 76 72 68 77 82 85 82 69 70 68 66 63 67 70 72 66 64 66 65 67 65 65 66
69 74 77 75 75 73 72 72 74 92 97 87 96 94 90 82 77 80 76 72 73 58 72 81 76 70 74 68 87 84 78 83 86 81 85 82 88 76 70 71 68 66 68 70 66 69 70 68 69 71 73 77 81 82
74 76 76 75 72 71 72 77 88 86 84 80 80 94 81 81 91 84 84 76 77 72 87 93 96 88 82 84 98 99 100 97 92 98 86 83 75 70 66 62 67 66 68 71 76 76 74 77 76 78 84 87 85 88
76 74 71 73 75 76 76 84 90 87 82 79 79 95 90 93 87 83 81 88 92 97 95 100 100 100 100 100 100 100 100 95 97 92 83 78 76 77 73 69 68 84 84 83 85 85 88 88 91 89 88 88 88 90
74 75 74 75 78 79 82 91 89 87 75 74 70 80 93 93 98 100 100 91 92 100 100 100 100 99 100 100 95 91 98 93 87 90 87 81 84 85 86 86 89 90 90 90 88 89 90 89 89 90 89 89 86 85
75 76 75 77 79 77 87 91 93 64 64 74 82 95 92 89 93 99 100 95 92 99 100 97 97 100 94 87 89 81 81 80 93 89 86 84 90 89 90 89 89 88 88 89 89 88 88 88 87 87 83 82 82 80
78 94 86 83 86 90 92 77 68 69 78 81 97 98 99 100 94 97 98 94 89 99 100 86 88 86 78 83 84 80 96 94 92 90 84 85 88 91 90 90 90 88 87 86 85 83 84 83 82 74 76 77 69 75
96 90 89 91 93 87 90 74 68 68 89 89 90 95 94 97 97 98 97 88 93 85 79 88 72 92 92 82 87 90 90 92 86 84 83 87 88 88 86 87 87 84 85 84 80 78 77 74 64 62 67 64 64 64
94 94 88 84 67 61 80 76 59 77 89 89 88 86 89 93 86 85 87 74 60 54 61 65 79 81 90 85 89 93 92 84 85 81 84 87 86 88 87 86 85 83 81 78 69 62 66 74 67 58 56 56 59 63
91 85 78 69 60 57 68 72 56 67 83 86 84 84 82 88 87 96 90 67 58 63 74 77 84 87 85 86 80 80 79 74 74 81 85 83 80 85 83 76 71 76 70 73 72 71 62 59 57 58 61 61 69 72
82 69 68 55 56 57 64 66 72 69 78 82 78 75 83 76 85 91 86 63 80 77 82 86 90 92 88 82 74 73 77 70 74 71 73 80 75 68 72 73 72 66 65 66 69 70 70 65 60 58 78 81 80 78
77 71 63 56 60 63 67 61 64 64 67 72 73 64 81 92 92 87 63 79 81 86 83 81 82 78 77 80 77 69 77 74 74 72 74 74 76 73 74 74 70 76 72 77 70 80 76 62 67 70 77 83 79 74
77 74 77 65 74 74 82 75 76 66 82 80 70 76 84 84 76 59 83 73 84 82 76 72 79 68 77 81 75 72 67 62 65 70 75 72 73 82 74 72 72 81 78 67 60 67 72 81 79 81 81 79 81 79
70 83 92 86 76 93 88 90 66 70 72 76 75 84 84 80 64 71 77 73 82 79 77 84 72 77 76 75 69 72 72 65 73 83 74 70 72 72 68 66 67 68 66 60 63 72 72 82 91 75 83 82 82 81
88 92 91 97 84 88 90 89 85 75 86 83 83 85 86 72 80 78 75 81 85 86 84 78 73 68 80 83 79 80 75 64 68 74 79 64 70 66 67 62 66 64 67 81 83 82 84 88 87 85 81 83 80 78
90 91 88 86 91 83 84 91 90 86 83 88 82 78 81 83 86 78 67 85 83 89 90 89 87 80 72 66 75 75 72 63 62 75 66 59 59 74 76 76 76 79 70 82 84 81 79 82 84 81 81 75 90 89
92 93 83 74 78 76 87 85 76 80 86 88 86 92 87 87 82 78 82 81 78 85 75 76 72 70 72 75 75 73 70 69 70 66 70 66 64 65 74 80 74 77 76 78 80 79 77 80 81 82 81 79 79 83
84 84 91 90 85 78 89 88 88 87 88 78 79 91 88 82 81 84 82 84 86 83 83 81 73 71 76 77 80 82 84 84 87 80 76 76 77 82 85 84 84 91 84 86 84 84 81 80 81 81 82 83 83 82
85 84 78 94 87 85 87 85 86 80 75 81 88 86 85 78 85 86 82 82 85 84 89 90 92 89 89 85 85 82 82 77 71 70 70 80 83 86 81 83 83 84 85 83 86 83 80 84 84 84 79 84 84 86
86 80 85 87 86 86 90 86 90 89 77 81 74 71 73 84 87 83 84 88 88 91 89 89 91 87 90 88 91 88 90 90 90 80 78 80 84 88 88 87 87 88 86 83 82 74 78 83 82 84 83 82 81 82
78 82 84 80 88 88 89 92 92 89 88 89 89 87 86 88 88 86 86 88 91 91 92 93 93 88 88 89 86 86 89 93 91 87 85 88 89 90 88 88 88 87 85 83 83 83 83 83 81 81 78 77 76 80
86 84 86 89 91 91 90 88 88 87 88 87 90 91 92 89 90 89 90 90 92 92 90 86 88 90 87 89 89 90 86 92 90 89 85 86 87 88 88 87 90 87 83 81 82 82 78 74 77 75 77 75 78 81
92 89 89 87 91 91 91 85 80 87 86 86 89 89 88 86 89 91 88 90 91 91 88 89 91 89 87 86 88 91 84 90 92 95 96 97 92 89 84 83 83 83 77 83 83 80 71 70 75 76 77 82 84 86

GFSWCAN_sfc_rhum_081.txt.gz
RH
81 83 84 77 75 74 73 73 71 72 73 76 76 74 72 72 75 63 62 50 57 73 42 42 39 43 42 45 60 53 56 67 64 75 71 86 93 60 51 35 48 50 52 59 54 57 57 58 44 64 88 74 71 69
80 82 77 77 77 77 74 72 72 78 77 78 75 73 72 72 74 76 75 50 50 72 55 48 46 43 40 37 43 45 56 62 66 75 64 82 92 71 62 62 45 78 86 94 88 96 82 71 78 81 77 85 82 79
76 83 80 78 79 77 75 73 75 76 77 79 75 71 69 70 75 73 67 63 67 82 60 47 44 38 38 43 40 58 44 44 71 87 93 77 92 69 78 89 74 61 50 82 85 95 93 86 76 78 79 82 76 72
79 83 80 80 79 75 72 72 76 76 77 78 75 72 71 72 74 76 63 65 57 64 76 52 35 42 35 38 41 45 49 48 48 48 75 81 80 59 74 70 78 69 60 72 98 88 80 78 93 92 84 81 86 87
81 80 85 80 77 74 73 75 76 77 76 72 73 72 71 71 74 78 81 70 53 58 82 66 44 34 35 40 44 45 50 54 53 69 79 82 56 80 67 63 79 72 98 92 96 86 92 98 95 94 92 86 94 79
75 82 90 80 76 76 77 79 77 78 77 74 77 70 69 70 74 82 100 93 83 79 90 76 48 49 41 44 45 46 50 60 68 74 77 60 57 62 73 90 84 81 77 96 99 100 99 98 96 88 85 80 91 85
74 77 83 85 78 77 78 80 79 80 76 74 71 68 68 72 80 96 90 90 84 95 100 90 55 48 45 47 52 51 59 65 64 70 58 59 53 52 76 91 93 84 91 100 99 97 93 92 89 75 58 56 53 51
78 78 80 82 80 76 79 81 80 76 74 72 70 70 75 75 83 94 89 85 94 99 99 92 69 63 52 64 67 55 74 72 74 64 59 62 53 56 85 96 86 94 99 95 96 92 79 75 58 51 48 47 50 53
80 82 83 83 79 77 78 80 78 78 72 72 72 74 89 96 99 95 85 90 96 96 92 74 76 86 67 67 67 72 64 82 47 72 63 55 69 81 90 86 87 90 93 94 91 69 54 55 51 48 47 48 51 55
79 83 82 81 79 77 77 80 79 76 72 73 91 99 100 99 89 89 97 100 99 90 71 73 46 74 64 80 85 74 72 69 77 67 58 77 80 78 70 72 67 71 89 88 77 67 62 61 59 57 55 52 53 57
76 80 80 80 79 79 80 80 77 72 77 98 100 100 97 84 94 94 91 89 75 78 56 55 55 66 56 88 81 62 74 69 66 62 70 77 84 81 64 62 60 59 56 59 63 66 64 60 61 60 62 62 64 70
73 74 74 77 80 80 79 78 76 88 98 95 90 94 97 94 78 80 74 62 61 50 53 65 59 52 60 56 77 69 66 68 77 72 80 79 82 72 64 64 62 60 61 63 61 64 65 65 65 68 70 75 80 80
72 73 74 79 78 76 78 75 78 77 90 88 89 88 78 78 94 89 79 71 75 63 77 87 88 70 64 60 88 83 98 86 80 96 86 84 70 62 59 58 61 59 62 64 69 70 69 74 75 75 81 84 82 86
75 76 78 80 79 77 76 76 78 82 94 85 86 98 91 91 83 76 74 87 93 93 84 88 93 95 90 100 100 100 100 98 93 92 91 76 72 71 67 61 63 78 78 78 82 82 84 85 87 85 85 84 85 87
78 80 80 78 78 76 78 83 88 94 94 86 61 86 94 94 98 100 100 90 85 99 100 100 95 95 97 100 99 97 100 96 82 93 89 84 85 79 80 81 84 85 85 86 85 86 86 85 86 87 85 84 82 81
78 78 67 77 78 78 84 91 96 72 61 71 79 94 94 91 91 99 100 100 87 100 100 100 100 100 99 86 89 87 75 80 93 90 88 81 84 84 84 84 84 84 84 85 85 84 84 83 83 84 80 80 79 78
78 57 72 79 79 86 93 96 86 62 77 85 96 98 99 100 98 100 99 93 84 98 100 95 99 98 77 78 74 74 93 94 91 90 86 82 86 88 87 86 86 83 83 82 82 79 80 78 76 68 69 71 62 70
58 71 78 80 85 96 96 81 65 62 85 84 87 90 91 95 100 100 97 87 90 88 76 85 64 88 92 81 83 90 89 90 85 82 82 84 86 85 83 85 82 81 81 81 76 73 72 71 59 58 59 57 56 58
65 74 82 88 88 83 93 72 52 73 87 85 84 82 84 90 86 83 85 78 62 54 60 62 88 75 89 89 93 91 89 83 84 80 81 82 81 83 84 83 83 84 77 72 64 64 61 66 60 50 49 48 53 55
81 82 89 85 72 61 67 67 50 60 80 84 80 82 80 84 83 93 88 63 56 60 74 76 88 94 88 87 79 81 78 73 72 79 84 82 78 83 81 75 71 75 69 68 65 60 56 52 48 49 54 52 62 66
93 92 80 65 52 50 56 57 59 59 70 73 76 74 81 76 84 87 84 58 77 75 83 89 89 89 83 79 71 70 74 67 72 70 73 80 74 68 70 76 68 67 69 72 73 65 66 58 53 50 73 76 74 71
82 76 56 51 56 59 59 50 58 57 62 69 71 60 77 88 87 84 62 79 80 86 83 80 79 76 75 77 71 64 74 69 71 66 68 70 76 76 76 74 69 79 74 76 64 74 68 54 59 62 71 76 74 66
70 64 65 57 79 81 80 60 76 61 81 77 66 72 82 85 74 55 82 70 86 78 70 65 67 59 72 73 68 63 60 58 62 66 71 72 73 81 73 70 72 77 70 57 51 59 67 76 68 74 72 71 72 72
66 81 99 92 78 92 81 80 57 61 65 71 72 80 78 78 62 72 78 70 86 75 71 76 64 69 67 68 64 64 61 59 67 77 67 65 68 65 62 59 59 60 58 51 56 65 66 75 79 65 71 72 71 73
87 96 98 94 80 87 87 85 83 70 84 77 79 79 81 70 84 80 79 82 82 86 82 72 68 64 76 74 70 71 65 57 63 69 70 60 64 60 59 53 56 55 60 74 75 74 74 76 75 73 69 71 70 70
90 94 88 85 86 81 78 87 84 83 78 84 83 69 79 83 85 83 64 84 83 89 89 86 82 78 69 61 67 65 61 54 58 70 59 54 55 70 70 68 68 74 64 75 77 74 69 69 71 68 71 66 85 80
92 91 79 66 70 68 84 82 67 78 83 82 82 86 85 87 84 80 76 81 77 87 75 77 70 67 64 67 67 64 64 65 66 61 60 55 58 61 69 75 65 81 70 73 76 73 71 70 71 70 71 71 69 73
80 77 89 88 82 77 83 80 82 82 82 67 70 86 83 82 85 81 78 78 91 83 83 84 76 66 69 71 76 79 81 80 80 74 71 70 70 76 80 81 80 82 76 80 76 75 74 73 73 71 71 74 74 72
83 84 77 92 84 83 83 82 82 74 67 75 82 81 80 73 79 83 82 79 84 83 88 89 89 86 84 79 80 80 79 77 74 73 65 78 82 82 73 76 76 75 75 76 84 74 74 75 76 78 72 76 74 75
85 82 82 85 86 86 87 82 85 84 67 76 69 64 66 81 83 78 81 85 89 93 91 88 89 87 90 89 92 90 86 82 78 71 72 74 80 85 82 80 78 79 76 75 73 69 72 74 72 79 77 73 74 74
71 82 82 79 84 86 86 85 86 82 82 85 84 85 82 86 86 80 82 86 87 88 89 90 88 84 85 86 85 86 90 88 87 84 80 81 82 82 81 79 79 78 76 73 74 74 74 75 72 72 71 71 71 74
82 79 84 86 88 86 84 87 84 84 84 86 86 84 88 88 84 87 87 90 92 91 86 84 87 88 86 90 88 89 85 86 84 81 75 79 81 80 78 77 79 75 73 73 74 74 70 69 73 73 75 74 76 78
84 82 80 83 88 86 84 81 75 82 82 83 84 81 82 85 85 88 83 87 93 89 90 89 88 86 83 82 84 85 77 84 86 87 88 86 81 78 77 77 77 77 68 75 74 74 71 70 74 76 75 78 79 79

GFSWCAN_sfc_rhum_084.txt.gz
RH
79 82 84 86 80 75 75 76 77 75 74 77 76 74 72 72 72 64 63 53 61 68 47 36 36 39 41 42 59 52 53 66 60 74 80 74 88 84 86 53 48 57 71 75 76 95 94 71 60 79 94 82 72 71
81 85 86 84 79 80 77 77 77 74 76 78 78 75 73 71 74 71 71 56 50 55 60 48 45 41 41 40 46 44 53 56 73 80 67 75 80 97 94 83 58 92 84 98 93 98 92 76 86 81 76 85 81 78
82 87 86 84 80 79 79 78 78 78 79 78 77 73 71 71 72 72 92 58 53 77 64 50 44 40 36 40 40 55 50 56 62 70 95 78 85 78 93 94 90 74 58 94 98 91 84 84 77 79 80 81 75 76
79 84 82 81 82 81 80 77 77 78 78 78 77 73 70 69 71 72 74 68 54 61 80 59 33 37 32 36 39 43 47 50 49 46 74 77 80 66 81 79 92 78 66 84 97 96 87 78 96 82 85 81 90 88
78 82 83 82 83 80 77 75 78 79 78 76 74 72 71 71 71 65 61 69 63 70 93 70 49 33 32 38 41 41 46 49 50 65 74 75 53 83 74 76 84 83 97 92 96 95 94 98 94 81 89 97 98 80
80 80 84 82 82 79 76 76 75 77 78 77 70 71 70 70 74 79 100 70 59 69 90 86 47 44 39 39 42 44 47 54 61 71 73 54 48 81 74 88 98 80 82 84 98 99 96 98 99 93 88 88 91 86
77 82 81 81 81 78 78 78 77 77 78 78 74 72 68 69 61 91 94 95 86 89 100 84 58 41 38 40 51 57 50 54 58 68 62 57 50 60 78 90 84 81 82 97 100 100 97 96 93 91 75 66 56 51
76 78 83 88 80 80 80 80 78 78 78 76 71 68 68 72 73 84 78 87 92 100 99 89 67 62 49 58 69 69 66 69 71 66 61 62 52 58 83 87 76 80 91 95 100 96 89 81 61 57 51 49 52 56
76 80 84 89 80 80 82 82 80 78 78 72 70 69 76 81 95 90 81 89 95 98 95 74 74 81 61 65 67 71 66 85 56 84 67 52 75 82 91 82 80 88 95 97 95 92 70 61 52 48 47 50 57 63
76 80 83 86 83 80 82 81 80 80 73 72 76 90 100 98 89 88 98 100 100 99 94 85 52 78 61 74 79 74 76 73 76 68 56 78 83 75 69 68 66 68 80 93 98 91 73 63 61 61 61 60 63 66
74 79 85 84 80 80 80 81 79 78 77 81 99 100 97 88 95 99 99 95 80 88 62 57 59 70 50 85 81 60 74 73 76 75 70 75 86 82 63 63 61 60 58 62 68 72 71 68 68 67 73 73 72 73
73 76 81 81 81 80 79 81 80 69 76 82 97 93 98 99 100 91 81 66 72 57 54 68 60 53 67 58 83 77 69 68 70 73 74 74 90 69 64 65 65 65 66 68 65 70 69 68 68 73 75 78 83 86
74 78 80 81 80 75 79 79 76 74 88 95 97 96 99 83 94 82 81 68 71 60 71 80 84 69 64 59 93 80 87 80 83 95 91 90 76 66 63 63 64 60 64 67 76 76 76 81 76 78 86 92 86 89
80 80 79 80 80 80 78 80 80 86 97 99 94 96 93 88 78 72 75 90 89 91 80 89 90 91 91 98 94 94 96 94 94 84 94 80 75 77 68 64 70 84 86 83 86 85 87 89 92 91 91 92 91 92
79 80 81 81 80 78 80 79 81 82 99 99 78 86 85 90 96 100 100 98 86 96 89 97 91 84 90 98 95 92 96 87 88 95 93 91 86 82 85 84 87 89 92 90 88 89 90 90 90 91 91 89 88 89
79 80 70 80 80 79 80 89 89 86 98 80 80 89 92 94 96 97 100 100 83 100 100 99 100 98 97 83 97 87 81 84 96 95 93 83 87 89 90 87 88 90 90 90 88 87 87 91 89 87 88 88 90 88
77 68 79 81 80 82 83 97 98 99 99 88 93 99 100 100 100 100 100 95 86 100 100 99 100 99 90 83 76 72 95 95 95 93 87 86 86 91 90 90 90 88 88 87 88 85 84 84 84 73 74 74 66 75
59 75 80 81 87 97 98 96 99 85 82 81 89 93 91 99 100 100 99 96 93 88 86 98 71 83 85 76 90 92 92 95 91 88 89 90 86 86 86 85 89 86 86 86 82 80 78 76 61 62 59 56 56 58
71 70 82 89 82 97 98 89 63 74 88 87 88 85 87 92 86 84 84 82 74 65 69 70 85 78 93 89 94 95 92 88 89 89 88 90 89 90 90 87 85 83 80 73 64 67 63 64 64 53 51 50 56 60
78 80 88 85 86 89 70 70 54 64 81 85 84 81 84 89 85 96 94 79 66 67 76 78 94 94 93 87 89 86 86 82 77 85 89 89 82 86 83 76 74 73 69 69 65 68 56 53 48 50 63 62 70 82
88 90 86 93 92 56 58 59 58 61 70 80 80 73 85 82 89 92 89 63 76 85 94 87 94 92 88 89 82 79 82 72 77 75 78 84 78 71 70 78 68 65 69 69 76 70 66 63 57 54 72 79 82 76
97 90 97 96 80 60 61 52 61 60 63 72 73 66 83 92 92 90 70 78 89 93 87 85 84 80 77 75 75 68 78 74 75 70 72 74 79 75 80 73 72 79 81 77 67 76 70 58 67 63 73 85 77 74
91 76 74 70 92 82 78 58 72 64 79 78 69 71 78 81 78 60 75 76 92 81 73 69 68 63 80 77 69 64 63 63 69 74 76 74 72 82 76 74 80 82 74 60 52 60 78 75 78 78 74 75 78 80
71 97 100 95 77 93 77 77 57 60 65 71 71 75 72 80 64 71 76 78 87 77 75 80 70 73 70 69 67 66 68 68 72 85 76 72 75 74 69 64 62 65 63 58 58 66 69 78 82 70 78 75 79 82
96 96 98 94 79 84 82 80 78 70 80 76 75 74 81 70 81 76 74 90 82 88 86 78 75 71 82 80 78 82 73 62 70 76 76 67 72 66 62 56 59 59 60 74 78 76 78 81 78 76 73 79 79 78
87 91 89 82 82 80 76 81 80 78 73 78 76 71 75 81 81 80 78 91 84 90 91 92 87 80 83 68 69 67 64 61 63 75 64 60 62 78 77 74 74 79 66 78 79 76 73 74 76 74 77 72 92 82
91 89 77 65 70 65 84 80 66 74 79 80 82 84 82 86 81 88 78 88 86 86 78 85 84 76 72 69 68 68 70 69 70 65 64 63 67 73 81 80 83 82 74 74 76 75 76 76 73 73 78 75 76 80
80 77 88 84 78 74 77 76 81 80 74 65 71 81 80 83 91 87 83 80 94 86 91 90 88 85 75 77 80 82 83 80 82 78 75 72 72 79 83 84 84 87 85 88 80 77 77 76 77 76 76 79 83 79
81 81 78 89 84 82 79 78 76 76 69 70 87 86 83 77 80 83 74 79 84 82 88 90 93 89 88 86 86 83 83 81 82 85 79 86 87 84 77 79 77 76 78 85 88 83 80 82 83 82 76 79 78 80
84 79 79 84 88 86 90 88 92 85 66 78 69 64 69 83 83 73 78 80 86 90 90 88 91 90 93 91 94 93 89 86 83 75 76 82 90 85 83 81 81 79 75 76 75 80 77 78 77 84 88 82 80 85
74 83 80 76 83 89 90 86 84 80 81 84 82 91 87 87 85 79 91 92 95 93 92 93 93 92 90 89 88 90 93 89 86 83 84 86 85 86 84 81 80 78 76 75 74 78 76 77 76 77 77 78 80 82
86 86 84 84 89 85 82 88 87 88 86 86 88 86 86 89 88 87 82 89 90 91 93 90 92 95 93 93 93 90 84 88 86 84 78 86 85 83 79 78 79 77 76 75 76 76 75 75 78 78 81 79 82 83
81 82 83 83 88 87 87 86 80 84 85 86 88 81 84 90 91 89 82 86 95 89 92 94 92 90 87 86 86 87 85 91 92 93 91 89 83 81 81 80 79 77 74 77 76 76 76 76 79 79 80 83 84 84

GFSWCAN_sfc_rhum_087.txt.gz
RH
81 83 85 84 82 79 76 75 75 76 77 79 79 76 72 74 74 83 91 74 87 93 74 61 51 57 64 71 92 72 78 80 89 91 96 96 98 92 94 99 83 75 83 90 84 95 96 83 74 86 99 82 75 77
83 84 85 87 82 81 78 79 79 78 79 80 81 78 74 72 74 76 91 68 65 83 81 65 62 59 61 61 73 72 71 79 96 95 92 95 92 96 95 96 93 98 100 99 96 98 99 89 95 96 85 90 84 81
83 83 85 85 82 81 80 80 81 79 80 79 80 75 73 71 72 78 98 90 82 96 92 83 72 58 48 52 53 81 85 73 80 86 98 97 96 86 97 98 94 81 69 99 98 95 93 96 95 94 96 92 83 81
84 86 88 87 83 82 82 82 80 79 80 79 79 78 75 71 72 73 94 93 91 84 96 81 45 54 46 51 58 58 64 68 71 76 94 96 96 79 97 93 95 86 78 95 99 99 93 92 98 99 96 91 94 90
83 89 90 84 83 83 82 81 79 79 79 79 78 74 71 70 72 80 93 90 86 89 97 92 64 51 44 50 52 56 61 68 79 88 95 94 80 94 97 96 96 90 98 94 98 96 95 99 99 98 94 98 92 86
82 85 84 85 81 83 81 80 77 78 79 79 75 72 72 73 74 96 98 94 89 92 98 98 73 60 53 53 56 62 67 74 81 90 94 83 65 94 98 99 96 82 85 92 99 96 97 100 100 93 90 92 92 90
82 83 82 81 81 82 79 80 78 79 79 80 78 75 71 73 91 95 98 97 89 90 97 94 89 61 54 57 69 77 69 83 76 88 91 82 74 85 97 98 94 84 88 95 98 96 96 96 97 79 70 60 61 61
81 81 82 84 84 80 80 79 77 78 78 79 78 73 74 73 78 95 97 88 92 99 98 91 92 85 63 81 86 94 90 83 90 91 87 86 82 80 97 96 88 81 92 95 99 94 91 83 74 73 61 57 65 71
81 83 82 85 84 82 81 79 78 78 79 78 75 74 89 92 94 94 87 92 98 97 94 96 96 93 86 84 87 92 88 99 85 96 90 82 95 99 93 90 87 85 99 98 98 78 66 61 58 60 62 64 72 75
80 83 81 88 83 83 82 81 79 80 78 77 84 92 96 97 87 87 95 98 96 99 99 93 84 92 87 96 96 97 95 96 96 92 85 95 98 88 80 78 77 85 98 79 98 94 84 73 76 82 83 76 80 87
76 80 84 89 82 83 82 81 80 79 76 92 94 96 96 86 96 98 99 99 99 98 95 90 86 93 83 95 96 86 96 93 94 92 92 98 98 94 73 77 73 74 76 84 83 83 83 79 83 82 83 81 82 84
71 76 85 86 83 82 80 80 81 81 92 89 94 96 96 99 99 99 97 93 97 81 86 91 86 84 85 80 95 95 90 92 89 93 93 95 97 85 81 83 79 80 82 86 82 88 85 82 81 82 87 92 95 95
74 78 79 84 81 80 79 80 75 85 87 94 98 96 99 99 99 96 97 91 92 90 84 90 91 92 84 89 97 98 95 94 96 99 98 98 86 81 80 76 80 79 84 86 88 88 90 92 87 91 96 97 95 96
80 80 80 82 81 80 81 79 83 86 95 99 99 100 98 98 94 93 94 95 95 97 95 97 96 96 98 97 93 93 91 96 98 98 97 97 92 94 84 81 90 97 96 95 96 95 95 95 97 96 97 96 95 97
82 82 80 81 80 81 80 82 84 94 99 100 98 98 96 95 98 99 97 94 97 95 98 98 97 95 94 92 93 96 98 97 97 98 99 96 95 95 96 95 96 97 96 97 97 96 97 97 96 98 97 97 96 97
81 81 74 81 81 81 82 84 91 92 99 100 96 88 97 92 97 89 93 94 98 99 99 95 98 95 94 97 99 96 98 97 99 99 97 94 97 96 96 95 96 96 96 97 96 96 97 97 96 97 97 96 96 94
71 81 81 82 84 86 87 94 94 97 98 94 98 97 99 99 99 97 92 99 98 97 97 90 97 92 99 96 91 98 99 99 98 98 96 94 95 97 97 97 96 95 96 96 97 96 96 94 93 91 93 92 86 88
81 86 81 81 85 87 94 94 99 99 97 96 98 98 97 99 99 100 100 99 98 100 98 99 100 94 93 92 98 99 98 98 96 96 97 96 95 94 93 95 96 94 95 96 93 93 93 94 87 88 81 77 78 81
85 83 82 82 81 94 98 98 99 96 98 97 97 97 98 95 97 97 98 97 94 90 94 97 96 97 99 99 98 98 97 95 96 97 96 95 94 94 94 94 94 94 92 90 82 84 88 84 85 86 85 81 93 95
81 84 84 79 87 99 98 98 79 90 95 96 96 97 98 99 98 97 98 97 91 93 95 93 99 100 99 98 97 94 93 90 92 95 96 97 96 94 93 91 92 91 90 87 90 82 84 88 85 83 86 89 96 97
88 90 86 87 98 97 78 87 85 88 93 89 96 93 98 94 98 99 98 90 92 97 99 99 99 99 97 95 89 88 86 84 88 92 91 96 94 88 94 95 90 92 95 96 95 93 88 94 93 90 95 98 96 95
91 84 97 98 100 88 78 75 85 84 90 93 91 90 94 92 95 98 94 96 98 99 98 98 97 95 91 90 89 83 89 87 85 84 86 88 95 95 96 94 94 97 98 97 97 96 96 94 94 96 98 99 90 94
78 79 95 98 98 92 90 86 82 81 94 95 92 92 96 97 96 79 94 96 99 96 95 92 90 84 91 88 85 84 79 75 83 87 87 94 95 95 95 96 98 96 95 93 90 94 92 91 88 94 96 95 95 96
92 98 99 99 99 96 92 92 82 81 85 87 91 89 91 97 84 93 94 98 98 96 94 92 88 89 83 83 94 94 88 84 90 95 97 96 97 97 94 92 88 91 93 89 91 94 96 97 91 93 94 95 94 97
99 97 99 98 88 87 84 89 87 85 93 90 87 86 97 93 93 92 86 99 97 97 98 91 86 87 95 97 98 99 90 87 94 96 96 90 92 91 85 83 89 91 95 96 94 94 96 96 94 94 93 95 95 98
98 96 97 88 89 88 78 84 87 83 84 84 88 96 92 95 90 92 97 98 98 97 96 95 93 92 95 91 95 97 94 85 87 96 94 87 93 91 91 93 97 97 97 98 97 96 95 95 92 88 91 96 96 97
96 94 92 83 89 82 93 92 88 90 87 83 97 95 94 92 92 99 98 98 99 97 97 98 97 98 91 90 93 91 89 86 84 86 89 89 93 97 97 96 96 99 95 93 93 96 94 95 95 93 94 98 99 97
90 89 96 94 92 94 82 87 91 83 89 89 88 95 89 92 98 99 99 98 99 98 98 99 98 92 93 93 92 91 92 89 88 87 86 91 94 95 96 94 92 97 95 95 95 94 96 98 100 100 99 98 99 99
92 94 90 95 89 94 90 86 92 95 90 93 95 98 99 97 98 97 94 98 98 93 94 95 96 92 93 92 92 92 93 92 90 95 98 100 100 99 98 98 99 98 96 95 91 97 92 97 98 95 97 100 98 99
97 94 94 95 96 96 99 99 98 96 94 97 94 90 94 97 96 94 96 98 98 98 96 93 94 92 94 93 96 97 97 98 98 94 93 96 98 98 96 97 96 96 96 95 96 98 95 98 99 99 99 99 98 98
91 95 94 93 96 98 98 96 94 93 95 96 96 98 98 98 96 96 98 97 97 96 95 96 96 94 94 94 94 96 99 97 96 93 91 92 95 96 96 97 98 96 94 94 92 93 94 97 98 98 97 99 99 98
96 96 97 97 99 97 95 97 97 98 98 97 98 98 99 99 100 97 96 98 97 95 95 93 94 96 96 96 96 94 91 95 96 93 94 92 94 94 93 96 95 93 94 94 96 96 93 96 99 98 99 100 100 99
94 95 96 95 98 98 96 98 97 97 98 98 97 95 94 96 98 99 96 97 99 97 95 95 94 95 95 94 94 97 96 97 96 94 94 94 92 93 96 95 95 94 92 96 97 97 96 95 98 98 98 99 100 100

GFSWCAN_sfc_rhum_090.txt.gz
RH
87 82 80 85 84 80 80 81 80 79 79 80 77 74 74 74 74 85 91 81 84 95 86 70 66 73 73 80 91 75 79 82 93 95 98 98 98 92 95 98 95 91 95 94 92 96 96 86 79 94 100 98 79 80
81 81 85 84 83 81 79 79 81 80 82 83 79 76 75 75 74 82 94 82 77 85 82 71 67 64 60 61 76 77 76 89 96 94 93 96 97 97 93 97 93 97 99 98 96 98 100 98 99 99 98 94 92 88
83 84 86 84 82 82 81 82 81 82 82 83 82 76 74 73 76 85 96 97 90 96 85 82 71 62 53 55 61 80 91 78 83 87 97 98 99 93 97 98 93 78 93 98 97 96 94 98 98 96 95 90 86 84
86 85 84 85 81 82 83 84 83 81 80 81 82 78 75 73 72 79 95 97 93 92 95 82 56 63 55 55 59 63 68 72 77 86 96 97 97 82 97 99 95 86 83 95 97 96 94 93 97 96 91 90 90 90
86 84 87 83 82 83 84 83 81 80 81 79 77 76 72 74 74 90 97 97 94 90 97 91 71 58 51 62 63 64 66 73 86 89 96 94 86 93 99 92 94 90 96 97 100 90 95 99 95 93 96 91 86 80
89 89 87 89 84 84 84 82 82 80 80 82 76 73 75 75 84 93 96 95 97 96 96 95 80 66 63 61 63 66 71 82 87 92 95 91 75 89 99 99 94 86 90 98 100 97 98 100 96 88 93 94 92 91
86 88 86 83 84 84 82 80 80 80 79 81 80 75 74 77 96 97 95 96 90 94 97 95 90 73 62 62 78 87 74 84 79 90 94 90 80 87 99 97 94 85 94 96 100 94 96 95 98 83 75 72 77 78
83 86 88 82 84 83 81 79 79 80 79 81 80 77 76 80 84 93 95 88 90 98 87 97 94 88 67 83 85 95 93 87 90 88 93 93 87 91 97 98 87 86 92 96 98 94 81 80 84 69 64 70 79 84
85 84 86 87 82 82 82 80 79 79 79 79 78 79 89 93 96 98 87 86 98 93 89 97 96 94 88 91 93 94 92 99 86 97 94 92 97 100 94 94 88 91 97 95 99 84 71 74 69 74 68 75 83 86
86 86 86 87 84 82 81 80 80 80 80 78 87 91 92 95 86 77 84 89 97 96 91 86 90 94 89 98 97 97 98 97 98 94 92 96 98 98 87 84 86 97 96 99 98 95 86 89 82 81 82 82 81 83
82 83 85 86 85 83 82 81 80 79 80 95 92 93 99 82 90 96 97 91 91 91 98 95 94 93 87 94 96 92 96 97 96 95 94 98 95 95 86 86 85 95 96 96 95 95 93 84 84 84 85 82 83 86
77 80 84 83 83 82 80 81 80 87 94 89 94 96 98 96 96 88 95 97 99 89 94 95 91 88 86 89 95 96 92 97 94 95 96 98 98 96 91 89 88 89 90 90 84 88 84 81 84 86 89 92 96 94
75 80 85 81 81 79 81 80 79 86 89 94 97 94 96 95 98 97 100 96 96 93 90 93 91 93 89 93 96 98 98 96 95 100 98 98 95 92 86 86 92 89 87 87 91 90 89 93 88 91 96 98 94 96
80 86 93 81 81 81 82 81 82 87 93 94 92 99 94 100 97 95 95 94 92 98 97 97 97 94 99 96 98 93 90 98 100 99 97 99 94 92 88 88 87 98 96 96 96 95 96 96 100 97 97 97 96 98
82 89 90 82 80 81 80 83 81 95 93 98 99 98 100 94 95 99 96 93 99 96 98 95 96 95 97 91 95 93 98 98 97 98 99 99 97 96 97 96 97 98 98 98 98 97 99 97 97 100 100 98 97 98
84 87 84 81 81 80 82 86 92 95 97 99 99 98 97 94 99 97 94 94 99 99 96 95 90 93 91 97 98 97 98 97 96 100 98 94 97 98 98 96 96 97 96 97 97 98 97 97 96 97 99 98 98 96
94 92 81 82 80 80 77 93 91 94 96 98 94 98 97 98 99 98 96 98 99 98 96 86 94 87 95 99 95 98 93 98 99 98 97 94 96 97 97 97 96 95 96 97 98 98 98 96 96 92 91 91 85 88
94 85 81 82 82 82 92 86 93 98 99 98 99 98 99 99 100 100 100 99 97 99 99 99 99 99 98 95 98 99 99 99 98 99 99 98 96 97 94 96 96 96 96 97 96 95 94 94 86 91 89 83 85 88
88 87 85 81 83 92 95 95 99 98 98 98 98 98 98 98 98 98 99 98 94 96 99 98 98 99 98 99 99 100 98 99 98 99 100 98 95 95 96 96 96 97 96 94 85 88 90 85 91 93 91 89 98 98
84 87 81 85 89 93 89 97 96 93 97 96 97 98 98 99 98 98 97 96 93 96 96 95 98 99 99 98 98 98 97 94 94 97 98 100 99 97 97 95 97 94 90 87 90 95 95 96 94 86 91 95 97 98
88 88 85 93 99 99 99 95 95 95 97 97 98 96 99 95 98 99 99 95 98 99 100 99 99 99 98 99 96 94 93 88 91 91 89 96 97 95 96 98 94 94 97 98 96 96 97 94 96 92 96 99 99 98
94 86 94 97 99 98 88 81 87 90 93 95 92 93 97 98 98 98 98 99 99 99 98 99 99 98 98 98 96 87 87 84 91 91 90 93 97 97 96 99 97 97 97 96 96 95 97 98 97 98 99 99 97 97
82 90 97 99 99 99 88 90 89 86 96 97 97 96 98 99 98 83 97 95 98 98 98 97 95 89 94 96 91 86 83 81 90 91 92 92 97 97 98 97 96 97 98 98 95 91 92 89 96 98 99 98 99 100
90 98 99 98 98 97 93 93 89 92 94 96 97 96 97 98 86 96 98 98 98 99 98 98 94 96 90 88 98 95 91 85 92 97 91 93 97 98 97 96 95 96 92 94 91 93 96 98 98 97 99 100 100 100
97 96 99 99 96 96 87 93 93 92 86 92 96 98 98 93 97 97 95 98 99 99 98 98 97 92 98 100 99 98 93 84 89 93 99 94 97 92 89 87 94 98 96 94 98 98 100 100 100 100 99 100 98 100
98 98 98 92 95 89 87 89 91 90 95 95 96 97 96 97 95 91 96 99 99 99 97 96 97 98 99 97 98 97 98 88 89 97 95 89 86 88 90 92 97 99 98 96 94 99 100 98 96 94 99 100 100 100
98 97 96 93 94 88 95 93 90 94 94 93 98 97 91 95 92 94 98 98 100 99 97 95 93 95 97 98 97 97 95 91 89 93 96 94 96 97 89 89 97 98 97 93 94 91 94 98 99 99 100 100 100 100
94 96 94 94 96 95 90 95 93 84 88 94 91 96 98 93 90 98 99 98 99 99 98 98 97 90 95 96 95 95 96 93 93 90 86 87 92 95 95 94 92 97 95 94 95 95 95 96 96 99 100 100 100 100
94 97 92 98 95 97 85 83 90 96 96 97 93 98 99 99 98 99 97 99 98 95 96 96 97 95 96 96 96 93 92 89 87 89 97 100 100 98 100 94 94 96 97 95 98 98 89 94 94 98 100 100 100 100
99 95 95 99 97 97 96 98 99 98 98 97 95 96 97 99 98 98 99 98 98 99 100 94 94 92 94 94 96 97 98 98 95 89 91 98 97 98 96 97 99 100 99 96 98 95 94 97 100 99 99 99 100 100
96 97 95 96 99 98 99 98 97 97 99 99 100 97 99 99 97 98 98 99 98 98 96 96 97 95 94 94 94 96 98 98 97 92 93 93 93 96 96 97 97 95 94 93 92 94 98 100 100 100 100 100 100 100
98 97 96 99 99 97 97 98 99 100 100 99 100 100 100 100 99 98 98 99 98 97 100 95 95 98 96 95 96 96 92 96 96 94 92 93 95 95 94 93 92 92 92 92 93 97 98 100 100 100 100 100 100 100
97 97 97 97 98 99 98 97 100 98 99 100 100 98 97 94 94 95 98 98 97 95 95 98 97 96 96 94 95 97 95 95 92 92 92 94 92 92 91 93 94 93 90 94 96 95 99 100 100 100 100 100 100 100

GFSWCAN_sfc_rhum_093.txt.gz
RH
90 88 86 83 83 82 86 81 80 78 78 76 74 74 73 75 78 77 85 86 80 94 82 71 66 68 75 78 90 75 80 82 91 94 95 97 98 85 98 95 96 95 94 93 88 96 96 90 85 94 99 97 93 86
89 85 83 84 85 86 84 82 82 81 82 79 76 74 72 76 80 77 92 88 80 82 79 76 66 65 60 61 78 85 76 91 96 94 96 96 98 98 97 98 90 98 98 98 96 97 99 98 98 98 99 96 92 89
88 83 86 86 83 81 79 83 83 83 84 80 76 73 73 76 78 82 96 98 86 94 83 80 73 68 56 59 62 90 93 83 87 87 97 98 99 95 99 100 99 82 90 98 97 96 96 98 96 96 92 92 93 91
84 84 86 83 81 82 82 82 83 83 83 83 78 75 75 75 77 81 98 99 91 90 92 87 60 66 62 58 61 68 77 78 84 89 97 98 97 84 98 100 97 83 84 94 98 96 94 95 97 94 94 93 94 93
85 85 84 83 83 84 83 84 83 82 82 80 76 75 76 78 79 91 98 99 96 81 95 89 71 64 61 60 64 66 70 79 87 90 96 95 88 94 96 91 99 89 96 97 96 93 93 96 95 96 91 93 94 86
86 85 86 81 84 85 85 83 82 82 83 81 75 74 76 79 73 91 95 92 98 94 92 93 80 72 67 69 70 72 77 86 90 91 94 92 83 91 99 100 89 89 93 93 98 96 96 96 96 94 93 95 94 91
86 87 85 84 85 86 84 82 82 82 82 81 78 76 77 81 93 97 94 96 90 93 94 92 89 76 70 67 79 89 76 89 80 92 94 91 84 89 99 99 90 90 93 95 96 92 95 96 97 95 84 78 74 74
87 90 89 84 86 84 83 82 80 80 82 82 76 81 81 75 79 95 97 87 88 97 96 96 93 88 73 85 87 96 91 94 93 87 94 96 89 95 99 98 91 88 92 95 98 94 90 85 72 76 76 80 86 82
90 90 86 86 84 81 81 80 80 81 82 78 77 73 86 93 95 97 76 83 97 92 97 97 95 96 87 95 95 96 94 99 91 97 94 93 98 98 95 97 92 95 98 98 97 88 78 92 81 74 79 80 85 86
89 84 85 85 83 80 81 79 80 82 79 76 85 89 97 95 80 75 86 93 93 96 90 96 95 96 89 98 98 97 98 98 99 94 94 98 99 96 95 92 92 96 98 98 93 97 91 88 82 82 85 82 83 82
86 87 83 85 84 83 80 80 82 77 75 92 98 97 93 84 90 84 91 89 89 91 90 89 94 95 89 94 97 95 97 98 99 95 96 98 97 96 94 93 92 94 94 96 96 96 93 84 85 85 85 82 85 87
82 84 86 84 83 81 81 82 76 86 90 86 95 93 93 93 95 81 86 94 94 87 98 98 95 92 88 92 95 95 95 98 94 99 98 99 98 96 90 92 94 93 90 91 91 90 85 80 83 88 91 94 96 95
80 83 84 83 82 83 82 79 80 82 83 94 90 92 91 98 96 95 98 96 100 96 94 96 94 95 92 93 96 98 98 97 95 98 98 97 95 92 93 94 92 86 84 86 91 90 90 93 89 92 96 98 94 96
79 83 84 82 82 84 81 82 82 84 91 94 83 97 95 96 97 96 95 94 92 98 98 98 99 94 99 96 99 84 91 93 98 99 94 98 94 94 92 88 88 98 96 96 97 96 96 96 100 98 98 98 96 99
80 85 82 81 83 82 84 82 80 95 95 97 98 95 99 96 94 96 98 97 99 98 98 95 96 96 98 93 90 92 98 97 97 97 97 96 96 96 98 97 97 97 98 99 99 98 99 97 97 100 100 100 98 100
82 90 85 83 83 82 80 82 92 92 95 96 98 98 99 96 98 97 96 94 98 99 95 97 95 95 92 96 98 96 98 96 94 99 100 98 98 98 97 96 97 96 96 97 97 97 98 97 96 97 99 98 99 96
94 98 84 81 81 78 76 90 89 90 98 99 97 98 99 98 98 98 97 98 99 97 93 85 89 85 89 97 98 94 93 97 99 100 99 96 95 97 97 96 96 96 96 96 98 97 98 96 96 92 89 92 84 88
96 86 80 81 81 84 93 89 94 95 98 99 98 99 99 99 99 100 100 99 96 99 99 99 99 99 98 97 97 99 99 99 100 100 100 99 96 96 94 96 96 94 96 96 96 96 95 95 86 93 91 83 87 90
88 83 80 76 80 89 91 96 93 96 98 98 98 98 97 96 98 98 99 98 96 99 99 97 96 98 98 98 99 100 100 99 98 99 100 99 95 96 96 95 95 96 96 96 90 90 88 85 92 96 97 94 98 98
84 84 80 83 86 84 86 93 92 95 98 95 96 96 87 96 98 98 98 96 93 99 100 98 95 97 98 98 98 98 98 96 96 98 99 99 99 95 95 94 95 95 94 91 93 93 96 98 96 95 97 97 98 99
88 88 86 92 93 93 98 96 94 95 98 98 98 96 99 96 98 98 98 95 99 99 100 98 98 98 99 99 99 96 95 91 95 94 95 97 98 94 96 97 93 94 96 98 99 98 99 95 96 92 98 98 100 99
95 87 97 93 97 92 98 86 90 93 96 98 98 94 97 95 96 99 99 99 98 96 98 98 98 99 100 98 98 92 92 89 92 93 94 92 98 98 98 99 97 98 97 97 97 96 98 98 97 97 98 99 99 98
83 89 92 98 98 97 93 91 91 90 95 98 99 98 98 99 99 90 99 97 97 98 98 97 96 90 96 98 92 88 83 83 96 96 96 95 96 98 97 99 97 96 99 99 98 94 96 95 98 98 100 100 100 100
84 98 100 99 98 97 97 95 86 94 97 99 99 100 96 98 88 99 97 97 98 99 98 99 96 98 98 92 99 98 97 94 97 99 95 93 96 100 97 98 98 98 97 96 95 93 92 98 98 98 100 100 100 100
87 96 99 98 98 96 96 97 94 94 87 94 95 99 98 97 100 99 98 96 99 99 100 99 98 98 98 100 100 100 96 86 93 97 100 95 97 96 95 94 98 97 94 94 98 98 100 100 100 100 100 100 100 100
99 95 96 94 96 92 88 92 94 94 96 98 97 97 96 97 95 91 94 99 99 99 99 97 98 99 98 98 98 99 99 94 88 98 99 93 89 92 95 96 97 97 98 98 97 100 100 100 98 97 100 100 100 100
99 96 97 92 94 92 96 95 92 96 97 97 98 98 96 91 94 91 99 98 100 99 98 96 94 95 97 100 98 99 98 96 95 94 96 93 92 91 88 90 95 95 97 94 96 96 97 99 100 100 100 100 100 100
95 95 95 97 98 97 93 97 92 93 91 95 92 96 97 92 89 96 98 98 98 96 100 99 98 95 97 97 96 96 96 94 93 91 90 92 94 97 97 96 93 99 96 94 94 94 93 94 98 100 100 100 100 100
99 97 94 100 97 97 93 92 91 93 95 96 93 94 95 97 98 99 99 99 96 98 98 97 98 97 96 96 97 96 93 90 92 96 96 98 99 98 98 95 95 96 95 96 97 98 90 93 96 98 100 100 100 100
96 95 96 98 95 96 95 97 98 98 99 98 97 96 96 98 98 99 99 99 97 98 99 99 97 95 95 94 96 97 97 98 96 93 94 95 92 94 95 95 96 97 96 95 95 97 99 99 99 98 98 99 100 100
97 95 95 97 97 98 99 100 99 99 99 100 100 97 98 99 96 98 100 99 100 97 98 99 98 97 95 96 94 96 98 98 96 90 92 92 93 95 95 96 98 98 96 92 94 95 97 99 100 100 99 100 100 100
98 97 96 99 98 97 97 98 100 100 100 98 99 100 100 99 96 97 98 100 97 98 100 97 96 99 97 96 97 97 94 96 96 94 92 91 94 96 96 96 95 92 91 93 94 96 94 98 100 100 100 100 100 100
97 97 96 96 97 97 97 97 97 98 100 100 100 100 98 95 90 95 98 98 97 94 98 99 97 96 96 95 96 96 95 96 94 93 91 93 90 92 94 94 93 90 90 93 95 95 98 97 100 100 100 100 100 100

GFSWCAN_sfc_rhum_096.txt.gz
RH
85 92 88 83 83 83 81 81 77 77 75 74 74 71 75 80 73 73 87 92 78 93 80 73 65 71 75 75 85 75 79 80 90 94 92 98 97 94 92 96 98 96 95 95 88 98 96 89 75 90 98 98 96 96
88 91 86 84 84 84 84 83 81 82 78 76 74 73 79 78 75 73 90 91 83 82 77 79 70 67 58 60 80 87 74 91 94 95 96 96 98 98 97 98 90 97 99 98 95 99 97 96 98 98 98 96 96 94
90 91 88 84 84 87 85 83 83 84 80 77 74 75 78 77 78 81 97 99 84 94 85 82 77 65 57 63 70 89 94 87 88 87 97 98 96 95 98 99 96 89 93 98 98 97 96 97 95 95 95 95 94 92
91 93 86 89 87 84 84 84 84 84 84 78 76 76 78 78 78 84 99 100 86 85 92 86 61 70 66 61 68 74 83 83 90 88 97 98 97 84 98 97 95 81 87 94 97 96 94 95 96 96 95 94 90 91
89 86 89 87 85 84 84 84 84 83 83 77 77 77 78 80 81 90 98 100 95 76 95 87 71 69 64 66 69 70 75 81 87 90 96 95 89 94 97 90 98 84 98 99 98 94 92 97 97 96 93 92 89 84
86 86 85 84 85 84 83 83 84 83 83 80 76 77 76 72 68 89 94 90 95 92 90 92 80 74 72 72 73 73 80 87 90 90 94 90 84 91 100 99 89 88 90 91 98 95 96 97 95 86 90 90 89 89
86 86 84 85 84 84 85 83 82 83 83 81 78 79 79 80 95 96 95 94 88 90 92 94 91 77 74 73 83 90 87 93 89 94 93 89 85 92 99 98 86 93 92 93 92 91 96 96 97 86 78 74 80 86
86 84 85 85 85 86 84 84 82 84 83 80 82 76 77 77 81 96 98 85 86 96 94 95 93 91 75 86 89 96 92 93 94 90 95 95 90 96 92 97 92 90 93 94 97 91 93 90 81 84 81 81 77 80
87 85 86 86 86 85 83 81 82 83 80 79 71 68 82 93 96 97 74 81 96 89 97 96 96 98 88 96 95 96 95 99 93 98 94 92 98 98 95 93 92 95 95 96 92 91 89 88 83 82 80 82 84 81
88 84 87 86 85 84 82 82 83 81 75 70 80 85 95 96 80 75 86 91 93 96 94 97 95 95 90 99 98 98 99 99 98 93 94 99 99 97 95 92 96 94 95 86 96 95 93 90 87 86 82 83 81 82
87 87 86 83 82 82 83 83 82 71 71 90 98 96 94 85 93 84 92 93 88 94 94 94 93 96 91 94 96 95 98 98 98 95 97 97 99 95 94 95 94 97 97 94 91 91 86 81 86 86 86 86 88 89
85 85 84 82 81 81 83 83 70 83 86 83 94 91 94 89 81 79 85 84 89 84 99 98 96 93 92 92 95 97 97 98 95 98 99 98 98 97 95 93 94 92 91 94 92 92 86 80 83 89 92 94 96 96
83 85 84 83 80 82 82 72 78 85 88 89 80 89 92 97 87 89 96 93 100 98 96 98 97 96 95 93 96 98 99 97 95 98 96 97 97 93 92 90 91 86 87 88 92 90 89 92 89 92 95 98 95 96
88 85 83 82 81 82 80 80 80 80 88 95 79 91 92 95 95 96 96 96 95 99 99 98 100 96 100 97 98 84 91 94 97 96 94 99 94 97 93 88 90 98 96 95 96 96 96 96 99 97 97 98 95 98
88 84 82 84 84 82 83 80 77 93 94 96 92 96 97 95 96 98 97 98 100 98 98 96 96 96 99 96 89 88 96 98 97 97 97 99 97 97 98 97 96 98 98 99 98 97 98 97 97 100 100 100 97 99
85 82 89 84 84 82 78 80 90 91 94 96 96 98 99 98 98 97 97 97 98 99 98 96 98 95 95 96 98 97 99 97 93 98 99 91 98 98 98 96 96 96 96 98 97 97 98 97 96 97 98 98 99 97
96 99 81 85 82 76 73 87 86 95 99 98 98 99 98 99 98 98 98 98 99 97 95 85 87 88 95 91 94 95 96 96 99 100 100 98 95 98 96 96 96 96 96 96 97 96 96 95 94 89 83 93 81 88
98 88 85 81 78 81 91 90 95 94 98 99 97 98 99 99 99 100 100 100 97 99 98 98 99 95 98 99 99 98 100 99 98 96 100 99 97 97 95 95 96 94 95 96 94 95 95 94 85 94 90 81 86 91
92 91 84 75 77 85 89 91 90 91 96 98 99 98 97 97 98 99 99 100 98 99 99 96 91 93 98 98 97 100 100 98 99 99 100 99 96 95 96 96 95 96 95 95 90 91 88 85 94 96 97 96 98 98
86 82 81 83 81 88 88 97 92 93 99 96 95 96 93 96 98 98 98 96 94 99 97 98 95 96 97 98 98 98 98 96 96 100 100 100 99 96 96 93 93 93 94 95 94 94 96 98 98 98 99 98 99 99
93 91 86 89 95 92 97 86 81 93 97 98 95 93 96 97 98 98 97 94 98 98 100 98 97 98 97 100 99 98 96 92 96 96 96 99 99 95 95 95 92 93 97 98 98 99 100 98 97 96 99 100 100 100
96 86 96 90 97 89 98 95 93 95 96 96 99 96 98 98 98 98 99 99 98 96 97 98 98 100 99 98 98 92 94 89 92 95 96 93 98 98 98 98 97 99 97 96 96 98 98 98 97 97 98 100 99 99
83 86 94 94 92 94 98 98 94 93 98 99 98 98 99 100 99 95 98 97 96 98 99 98 98 94 97 98 92 89 85 84 96 97 96 96 96 97 97 98 96 96 98 98 98 96 98 96 98 99 100 100 100 100
83 93 98 96 96 98 97 98 90 88 97 97 98 99 99 100 93 99 92 96 97 99 99 99 97 99 98 94 99 98 98 95 98 100 96 94 97 99 96 98 97 96 96 97 97 97 96 98 97 98 100 100 100 100
83 86 95 98 99 96 100 99 98 96 96 97 99 100 98 97 100 100 98 95 99 98 98 99 98 98 99 100 100 100 97 90 95 99 100 95 98 98 99 98 99 100 98 97 98 95 100 100 100 100 100 100 100 100
96 90 96 95 97 96 93 97 97 96 96 98 98 97 97 98 97 93 93 99 100 99 98 98 98 99 99 98 99 99 99 92 89 98 98 94 91 92 98 98 98 97 98 97 94 96 98 99 98 96 100 100 100 100
97 97 98 95 94 92 97 96 93 96 98 100 98 98 98 100 94 90 98 98 100 100 98 98 95 96 97 100 99 98 98 96 95 96 96 96 97 96 92 92 94 95 97 94 95 94 95 96 98 100 100 100 100 100
95 96 95 97 99 97 93 95 92 96 93 96 94 98 96 91 88 95 97 97 96 94 99 99 98 98 98 98 97 97 98 97 96 95 93 93 95 96 95 97 93 98 94 97 97 96 94 95 97 100 100 100 100 100
100 98 95 98 98 98 95 91 90 93 96 95 94 95 93 94 97 98 99 98 97 97 99 99 99 99 98 97 97 97 95 94 94 97 97 98 98 98 98 95 94 93 93 94 96 98 92 97 98 98 100 100 100 100
96 96 98 98 97 97 95 98 97 98 98 98 97 95 95 97 98 98 99 99 98 98 100 100 98 98 97 96 98 98 98 98 97 92 94 96 96 96 96 94 95 97 94 92 95 97 100 100 99 98 99 100 100 100
98 96 96 98 97 98 98 99 98 99 99 100 100 97 97 99 96 98 100 100 100 99 97 98 98 98 96 96 95 96 98 98 97 96 95 94 94 94 94 93 96 94 94 96 98 100 100 100 99 100 100 100 100 100
98 97 96 98 98 97 98 97 100 100 100 100 98 100 100 98 95 96 98 99 98 98 100 98 98 100 99 97 98 97 94 96 95 94 90 89 90 91 92 94 94 91 93 96 96 96 96 97 99 100 100 100 100 100
97 97 96 96 97 97 97 97 96 97 99 100 100 100 100 97 90 95 97 99 98 97 98 99 99 97 96 96 96 96 96 96 94 92 91 92 90 93 94 93 91 90 93 96 96 95 96 96 98 100 100 100 100 100

GFSWCAN_sfc_rhum_099.txt.gz
RH
82 80 87 90 82 81 82 80 78 78 75 74 75 73 79 76 71 70 86 87 74 88 74 69 58 67 68 65 73 69 70 72 77 81 76 89 84 84 86 94 91 85 82 81 75 89 91 80 69 82 95 96 94 95
80 82 89 84 84 83 82 80 81 80 77 76 73 78 78 76 71 71 84 84 80 77 74 72 68 64 56 54 71 73 65 82 80 80 78 81 86 90 90 88 87 92 94 92 92 91 94 91 92 96 96 94 96 94
86 84 89 84 85 85 84 83 84 82 78 75 78 79 78 77 75 76 95 94 79 92 77 75 75 67 61 64 67 76 85 77 80 74 88 87 83 78 88 88 88 82 87 92 94 93 92 95 95 93 93 92 93 91
86 92 85 85 85 86 85 84 85 83 82 76 79 80 80 80 78 82 97 98 80 80 90 80 61 70 61 66 71 72 79 79 78 70 85 87 78 74 89 86 82 74 76 88 93 94 93 94 95 93 94 92 92 93
89 93 85 87 88 85 86 84 85 84 80 75 79 80 80 80 82 87 96 97 85 68 92 80 70 67 67 67 68 69 71 70 66 73 83 82 72 84 90 82 88 71 89 89 88 87 86 96 96 94 93 94 92 83
91 92 88 86 84 84 82 83 84 84 83 82 80 76 72 68 66 85 94 85 90 87 89 88 72 71 72 70 71 74 73 74 71 73 80 70 73 81 94 92 82 70 83 80 93 93 91 93 94 84 84 84 81 79
90 88 87 85 84 83 82 84 85 85 83 80 78 78 79 78 87 97 94 90 85 84 92 90 82 70 70 70 82 84 81 80 71 78 73 67 67 80 92 93 81 88 86 87 86 83 91 88 88 76 72 73 75 72
87 87 86 83 82 82 82 83 84 84 85 83 82 80 78 78 81 94 94 82 83 92 88 92 88 82 72 77 86 91 86 81 85 77 81 78 78 87 83 91 87 88 92 90 86 87 81 81 76 75 70 66 71 72
86 85 84 85 84 84 82 82 82 84 80 71 68 69 84 94 97 94 77 77 94 84 89 84 92 97 82 90 92 89 87 96 82 90 80 76 89 96 86 88 88 88 90 94 88 82 77 77 77 75 72 70 71 75
86 84 86 86 84 84 84 80 84 78 69 67 76 84 97 96 83 73 84 86 89 91 88 92 83 95 83 93 94 92 94 92 89 81 84 95 92 88 88 76 76 81 88 85 93 91 87 83 78 76 74 70 69 72
85 85 86 85 84 84 83 81 74 65 65 87 96 97 93 82 89 87 93 91 89 84 83 86 84 93 84 91 90 85 91 90 93 86 88 90 88 87 92 91 90 90 87 84 78 76 76 74 78 80 80 79 77 78
82 85 85 84 84 84 83 72 68 77 77 81 91 92 92 90 88 83 83 83 82 78 94 90 84 81 90 84 87 94 92 94 90 92 93 94 92 91 90 91 90 88 89 92 79 81 79 78 77 81 84 86 90 90
84 83 83 84 85 81 70 74 77 80 83 87 81 88 84 85 89 90 96 93 98 94 92 96 94 88 91 85 96 92 98 95 92 97 89 90 88 89 87 85 87 83 85 87 90 89 84 85 83 86 91 95 92 94
83 81 82 84 82 78 81 80 78 79 86 85 75 90 92 89 93 93 90 93 92 93 93 94 98 94 97 94 94 78 86 91 93 93 90 90 86 89 87 83 84 94 93 93 93 92 94 94 97 96 96 94 94 96
83 82 82 82 82 84 82 76 76 90 91 94 84 96 94 93 96 97 97 98 98 94 94 94 92 89 96 96 85 84 90 94 91 92 90 88 93 95 96 94 95 97 96 96 94 95 96 95 95 98 96 93 92 94
83 81 87 84 84 80 76 77 87 87 93 93 94 96 98 97 98 98 96 98 98 97 93 90 95 92 94 90 88 94 96 94 88 95 93 92 97 97 96 95 95 95 95 95 94 94 94 95 93 94 95 94 94 89
84 96 86 85 78 75 71 84 84 95 97 96 98 98 98 99 99 99 98 97 98 94 91 78 89 89 88 86 83 88 96 92 97 98 93 94 94 97 96 95 95 95 94 94 93 91 92 89 86 74 68 75 71 79
94 90 84 76 78 79 91 89 92 89 97 97 95 98 99 98 99 100 100 100 94 97 92 94 94 96 97 98 95 93 98 97 95 94 94 95 95 96 93 94 95 93 92 93 90 88 85 82 63 61 64 65 69 74
93 91 79 71 73 83 86 86 91 90 96 97 97 96 94 96 97 97 95 98 98 94 93 85 85 87 93 92 94 98 99 95 96 95 94 96 94 94 95 94 93 92 92 88 76 68 67 71 70 71 70 69 75 81
86 81 81 81 76 85 84 96 84 88 97 95 93 93 90 93 96 97 96 97 92 91 92 93 90 91 94 94 92 93 93 91 90 94 96 94 91 93 92 88 84 86 84 81 77 78 74 78 78 82 84 83 87 86
96 91 81 86 93 94 91 83 78 92 94 93 91 87 95 93 95 96 94 93 94 94 98 96 95 95 96 98 92 88 92 87 89 86 87 93 92 83 85 84 83 80 84 86 85 84 86 83 82 84 91 94 92 89
97 77 90 87 92 90 96 92 90 92 89 95 96 93 98 98 96 96 93 97 97 94 95 95 94 96 98 94 92 84 88 84 86 88 92 89 93 92 92 89 86 92 90 89 83 89 88 86 83 85 90 94 91 90
82 84 95 89 86 90 100 97 95 91 97 96 94 95 96 99 96 93 95 93 94 94 94 91 94 91 94 94 89 85 80 78 83 86 90 87 86 92 89 88 85 91 91 85 78 86 91 90 91 93 92 92 93 95
80 88 90 97 92 96 96 98 91 86 96 95 96 99 98 98 92 96 84 90 92 95 93 97 95 96 92 90 91 90 88 82 87 96 88 87 90 90 84 85 83 82 80 79 86 89 90 93 95 90 92 94 96 95
78 80 87 100 95 98 98 99 99 91 99 98 100 99 96 94 99 100 96 90 95 96 95 94 94 92 95 95 94 92 92 81 86 93 95 83 89 91 91 89 88 83 88 96 97 96 96 95 93 93 95 94 94 94
87 87 95 95 98 95 94 100 100 98 96 98 98 96 95 97 94 92 87 94 97 96 97 96 96 94 94 91 93 94 90 82 82 92 91 82 83 90 94 95 95 96 90 91 94 95 94 92 94 93 94 94 97 93
98 99 97 96 95 95 97 96 92 96 100 100 96 99 97 99 96 87 91 95 98 97 94 94 92 91 92 97 94 92 92 88 88 89 90 87 86 83 86 92 94 88 90 89 89 89 92 93 93 94 98 100 99 96
96 96 94 96 97 96 97 96 94 95 94 92 92 96 96 92 86 86 91 94 94 94 95 96 94 92 93 94 94 95 94 95 95 93 89 89 90 92 92 92 90 93 89 90 90 91 90 92 94 94 94 96 100 100
98 98 94 98 97 98 96 90 90 91 93 94 94 93 90 88 91 94 95 95 95 94 98 99 99 97 96 95 95 94 94 94 95 97 96 96 96 95 92 92 92 92 92 94 96 95 90 92 94 93 94 98 99 96
96 96 98 99 98 98 94 96 96 96 93 94 94 91 90 92 94 94 95 97 98 98 97 97 97 97 97 96 98 96 96 96 93 90 93 94 93 95 94 92 92 92 92 92 95 97 99 98 97 96 96 97 95 94
96 96 97 98 97 97 97 97 97 96 98 100 99 98 96 95 94 92 97 98 97 98 98 98 97 96 97 97 96 98 98 96 96 95 94 95 95 95 94 92 92 92 93 93 93 93 96 95 95 96 95 95 96 92
98 97 97 99 97 97 98 98 99 100 100 99 97 100 98 97 96 93 96 98 97 98 99 97 98 98 96 95 95 94 92 96 96 95 93 94 94 93 91 91 92 92 93 94 94 94 94 94 95 94 93 94 95 94
96 96 96 96 96 95 96 96 95 95 97 100 100 100 100 97 90 94 94 96 97 96 97 96 96 97 96 96 96 96 94 95 94 93 91 90 87 90 91 92 91 91 92 93 94 94 94 93 93 93 94 95 96 95

GFSWCAN_sfc_rhum_102.txt.gz
RH
81 81 81 90 88 84 84 84 79 79 78 77 76 76 82 83 80 65 68 69 57 66 60 56 49 49 52 41 50 60 55 58 57 61 57 70 73 62 72 96 82 72 73 70 60 78 84 64 60 91 96 91 89 94
82 79 86 89 85 83 82 80 80 80 79 80 76 78 82 79 76 64 63 62 58 53 61 58 58 52 48 43 44 53 54 60 61 52 48 55 72 78 73 83 78 92 95 90 87 90 88 77 89 86 92 92 96 94
81 84 88 90 84 84 82 82 82 82 82 79 81 79 78 75 72 64 73 61 50 72 54 46 55 53 49 53 56 43 55 56 61 57 68 62 69 55 71 80 77 71 72 84 89 86 82 86 79 80 91 91 93 91
82 84 88 84 84 84 84 83 83 82 81 84 82 81 80 79 77 66 64 75 53 47 71 64 46 55 50 49 54 52 60 60 55 42 60 66 65 58 70 78 63 58 61 72 92 89 81 82 85 86 91 86 90 92
84 88 86 84 84 85 84 84 83 82 83 82 81 82 80 78 74 66 66 68 57 46 71 60 53 53 48 46 49 48 48 45 36 41 58 57 47 66 71 65 69 59 88 79 85 72 83 92 91 87 90 88 85 74
92 85 83 84 89 83 85 85 85 81 85 84 80 73 69 68 64 64 100 62 62 61 68 72 57 58 54 49 51 53 52 49 42 47 50 40 56 66 81 83 77 67 66 63 90 83 88 89 86 80 82 84 76 70
93 85 86 86 88 81 84 84 85 86 86 82 77 77 75 76 64 90 85 76 72 62 94 72 58 56 58 51 53 55 55 51 47 47 44 37 44 57 78 81 75 71 69 75 73 74 89 79 84 72 60 60 61 57
88 84 85 86 83 80 83 84 85 84 84 82 80 79 77 74 70 74 70 70 69 79 67 78 76 63 57 52 63 66 55 50 59 53 53 47 55 60 78 94 74 73 76 74 74 68 64 63 58 58 55 55 57 58
87 86 84 82 82 83 84 84 86 86 84 78 74 70 64 75 78 71 77 68 73 62 72 65 73 85 63 66 69 66 61 82 56 67 56 52 70 80 72 74 79 74 81 84 81 64 60 63 62 59 55 54 56 58
84 83 82 82 81 82 81 82 82 71 66 64 55 61 97 80 83 69 64 74 71 65 62 74 57 83 62 77 79 74 74 68 70 62 62 78 73 71 66 62 62 63 69 73 83 79 68 67 62 60 56 53 53 57
84 85 85 82 81 82 77 83 70 62 57 60 80 90 78 79 68 66 84 73 67 62 54 61 60 73 62 84 78 61 70 72 71 74 70 74 71 75 71 65 58 63 68 68 65 63 60 60 63 64 64 61 59 60
85 84 84 83 82 83 79 69 64 57 54 63 76 79 76 69 68 73 77 71 63 58 67 72 66 61 72 61 69 74 67 78 76 74 81 77 86 83 86 83 81 75 73 74 65 68 66 64 64 68 71 74 79 82
85 84 84 83 81 77 67 70 74 77 72 66 61 66 62 71 80 65 88 83 84 80 78 82 91 77 75 66 92 80 96 92 79 95 79 81 76 80 83 78 78 74 79 79 77 73 71 72 70 76 84 89 86 88
84 83 83 82 78 81 79 76 70 69 65 62 69 85 83 84 83 83 81 87 90 89 80 83 97 95 93 96 92 79 89 84 88 86 84 82 78 80 82 75 74 88 92 92 91 90 90 91 93 91 90 90 90 91
83 83 82 79 82 80 75 74 73 66 70 80 68 89 86 92 92 97 98 95 91 86 82 88 85 76 94 99 81 77 88 85 79 88 91 80 82 86 89 90 92 94 94 93 92 92 92 92 91 93 90 86 86 87
83 80 75 83 81 74 72 67 64 63 71 79 84 93 98 94 99 100 100 100 91 89 82 74 92 91 92 80 85 86 79 77 93 99 91 85 90 91 92 91 91 91 91 92 90 89 90 90 86 85 84 81 79 78
73 77 84 80 76 74 68 62 59 75 83 82 97 100 100 100 99 100 100 92 84 88 96 72 77 76 77 74 74 76 95 100 100 96 86 89 92 94 92 92 93 91 90 89 88 85 85 85 81 66 64 69 63 73
81 84 78 73 66 68 68 65 67 70 89 89 91 99 96 100 100 100 97 95 82 79 68 83 82 84 88 88 86 98 99 94 90 88 88 93 94 91 88 90 90 87 87 86 83 82 75 66 49 50 54 53 56 58
81 76 75 70 61 61 60 67 68 80 91 93 90 84 87 96 88 86 88 87 85 72 71 74 82 81 90 89 100 100 98 92 87 86 88 92 90 91 90 88 88 86 83 80 64 49 47 47 48 50 53 54 60 63
82 82 80 78 67 59 64 75 67 70 82 87 83 82 78 85 88 99 94 85 68 65 74 83 86 91 93 98 88 91 88 81 77 82 89 87 84 89 87 79 73 77 70 63 52 57 57 59 55 57 60 62 70 73
91 83 74 69 72 66 67 66 73 79 77 77 78 70 78 76 80 88 84 68 75 68 75 86 100 100 98 95 84 79 85 76 80 76 75 85 80 71 74 70 71 64 64 60 66 67 71 69 65 66 83 85 83 79
87 74 69 67 70 74 76 71 69 70 73 72 72 69 79 94 92 87 72 82 74 81 83 87 86 86 90 87 81 71 81 75 76 76 77 77 82 77 75 73 69 76 72 75 69 80 76 65 68 72 84 90 76 77
72 67 68 62 79 83 94 78 84 75 87 86 80 86 90 93 82 71 82 74 85 89 82 72 81 81 81 85 77 73 69 65 67 70 79 72 71 79 72 71 72 81 75 65 63 72 78 72 77 85 86 82 84 86
74 73 83 87 77 95 91 90 71 71 80 86 88 91 89 91 81 85 81 70 84 83 84 92 82 84 79 79 72 72 72 65 70 83 75 71 75 73 67 66 66 67 64 61 69 77 83 87 82 81 86 84 82 82
67 86 85 96 86 89 89 88 85 74 84 91 96 90 90 84 88 86 84 77 85 91 86 88 87 85 91 89 81 77 78 63 66 69 81 65 70 70 69 64 65 64 67 84 89 90 91 90 88 88 82 82 83 83
75 84 79 84 92 84 81 89 91 94 83 89 91 85 90 90 88 86 69 92 89 91 92 93 92 89 83 73 76 75 71 62 62 75 69 64 68 81 83 83 84 84 71 82 87 91 91 88 88 85 88 87 84 83
78 91 86 80 77 77 88 86 76 85 93 90 86 94 90 90 86 73 78 81 84 93 85 86 85 82 78 78 77 75 70 69 72 67 69 65 63 63 74 81 79 72 80 86 88 88 89 89 88 87 89 87 85 80
83 85 91 91 90 85 90 90 86 85 82 73 81 93 88 82 84 87 82 87 88 89 89 86 82 78 80 80 84 86 89 88 90 83 79 78 79 84 86 86 85 84 85 87 88 86 85 86 88 88 87 88 92 85
94 87 87 96 93 93 90 85 79 73 73 80 88 84 89 72 86 89 86 85 87 90 93 94 95 94 93 90 89 88 89 88 89 91 87 91 93 93 86 87 86 86 88 90 85 84 84 86 86 86 84 87 89 87
91 90 90 94 95 90 91 91 94 93 78 85 82 74 72 86 91 86 88 90 92 94 93 94 94 95 96 94 95 94 91 88 85 82 86 88 85 92 91 91 91 90 87 88 90 91 94 92 92 89 88 89 87 86
86 92 95 90 92 94 95 95 94 91 92 94 94 95 89 93 88 83 86 89 91 95 97 97 97 94 94 95 93 94 96 93 88 87 88 90 92 92 91 90 89 88 86 86 86 85 85 85 85 86 85 84 84 80
94 89 89 95 94 93 93 95 94 95 94 94 94 96 94 93 92 92 91 94 95 96 93 92 94 94 90 87 88 88 82 89 93 92 90 91 92 91 91 88 87 84 83 82 83 84 82 83 84 82 81 81 82 81
92 93 93 92 92 91 92 92 87 89 92 91 91 93 92 92 88 93 87 90 93 90 91 92 92 93 91 90 90 92 87 91 90 88 88 87 87 88 89 85 82 82 82 84 86 85 82 80 80 80 82 83 84 84

GFSWCAN_sfc_rhum_105.txt.gz
RH
75 81 80 80 81 86 88 89 90 86 82 79 77 74 79 79 80 83 90 62 66 70 54 44 40 45 42 36 49 47 49 50 46 58 49 57 66 48 60 96 59 59 57 58 47 67 88 56 55 82 92 82 76 85
79 81 79 82 87 86 90 84 79 81 80 79 73 79 82 84 85 85 84 56 52 57 59 51 49 45 47 42 36 45 46 42 48 45 39 43 62 66 64 70 64 91 96 94 84 92 84 70 84 80 75 78 91 87
79 80 86 90 90 91 86 81 82 81 81 80 80 79 80 82 83 74 58 54 49 66 54 43 50 45 40 44 46 38 38 44 48 50 57 52 63 47 66 77 70 62 59 84 84 84 77 80 70 73 72 81 79 77
81 83 89 91 84 84 82 83 83 83 82 78 78 80 81 79 78 74 54 54 56 43 68 57 36 49 38 38 39 42 47 47 45 40 55 60 56 52 66 64 76 51 57 71 90 81 72 71 73 73 79 80 88 82
81 86 90 84 84 84 84 84 84 82 82 80 82 81 80 79 76 58 56 50 48 55 62 55 46 42 35 36 37 38 38 38 31 36 57 51 41 58 59 53 56 49 96 79 86 67 76 84 77 72 79 82 77 66
82 87 88 84 86 85 85 84 82 83 82 86 80 78 76 75 74 57 99 51 49 32 56 66 48 49 42 40 42 43 41 38 32 38 38 35 50 58 73 80 69 55 55 62 88 73 81 77 73 66 75 75 64 61
90 87 84 85 85 85 84 83 83 83 84 81 76 75 74 70 52 77 78 63 64 53 81 65 48 49 46 40 42 42 41 40 37 36 36 31 38 46 67 72 65 59 68 72 67 68 80 72 77 61 56 55 57 52
93 83 84 85 84 84 84 85 86 85 84 81 79 78 77 73 72 57 57 65 68 67 53 65 64 56 46 43 53 44 43 40 44 42 42 38 42 45 68 87 61 65 70 69 65 60 59 56 51 50 49 48 52 53
86 90 90 82 81 83 84 86 85 85 84 77 73 70 53 54 53 49 77 68 55 50 62 55 68 82 50 53 56 48 43 71 43 54 44 41 60 71 61 70 68 66 73 80 62 55 53 55 51 50 49 50 52 53
86 86 84 82 76 82 85 87 86 83 74 62 45 54 93 63 79 69 57 67 57 48 47 58 45 77 56 63 67 61 55 56 64 52 48 65 62 58 47 57 61 60 64 60 70 70 63 61 56 53 51 49 49 52
85 84 84 83 80 85 83 78 72 64 65 42 68 86 59 74 51 50 77 62 55 53 44 47 53 66 49 77 69 46 58 59 59 69 59 65 60 64 62 65 60 60 68 61 57 57 55 55 56 54 53 52 53 54
82 84 85 83 78 83 78 68 60 45 44 55 62 60 59 57 62 72 70 60 49 48 55 62 50 50 55 45 60 57 55 62 70 59 67 65 83 64 74 72 70 68 65 64 64 61 62 57 56 57 59 62 71 77
83 85 86 82 81 75 67 68 76 74 66 52 51 56 56 65 88 77 87 72 79 67 70 70 84 67 58 54 78 67 92 90 62 91 70 80 73 67 76 83 82 77 69 66 78 67 63 64 63 70 76 86 83 84
84 85 86 82 78 78 78 76 70 61 48 54 63 90 87 90 77 76 74 90 88 83 72 82 90 82 77 88 83 83 84 74 82 82 72 77 76 74 73 72 75 87 95 92 93 87 86 87 90 88 87 87 88 89
84 82 80 82 82 75 72 70 66 49 58 70 62 86 84 88 90 97 97 92 90 78 73 76 74 67 81 94 76 71 84 80 70 91 88 81 83 86 90 92 91 93 94 93 92 92 92 91 90 92 88 85 85 84
81 75 72 82 74 71 68 64 53 52 59 71 78 93 94 96 100 100 100 100 81 79 70 64 86 91 87 72 80 77 73 73 96 93 87 82 90 88 92 95 94 94 94 94 92 91 89 89 88 88 84 80 79 78
70 77 82 77 73 71 67 48 50 62 70 72 98 100 100 100 100 100 100 86 71 78 96 63 83 66 65 65 63 68 93 99 94 92 84 88 87 91 92 91 91 90 90 89 88 84 85 82 81 66 64 68 63 71
69 71 76 70 59 61 51 50 58 59 79 90 88 99 98 100 100 99 95 90 74 63 59 73 70 74 79 75 78 94 95 94 90 86 85 87 92 90 88 90 88 86 86 84 81 81 81 70 48 48 51 50 52 55
64 62 75 69 57 50 52 57 55 71 90 86 82 76 87 96 84 80 84 80 70 53 60 63 76 72 82 89 100 99 97 89 88 85 86 87 88 88 87 86 85 84 81 78 68 61 50 43 45 44 46 46 54 57
79 78 75 74 67 47 54 65 54 64 82 79 70 73 72 81 80 99 87 72 62 60 63 69 79 92 96 94 83 84 86 76 76 83 87 85 83 87 87 78 72 75 69 62 53 48 43 46 44 47 51 53 65 67
65 68 70 58 56 48 54 58 68 64 64 77 70 71 76 67 74 81 82 61 70 59 65 74 99 100 97 92 77 74 82 70 76 74 75 82 78 70 73 68 68 63 62 58 59 57 60 61 56 58 75 80 80 73
62 67 55 54 59 59 64 64 65 60 65 65 68 65 74 83 83 83 68 73 69 74 77 74 73 84 83 79 75 64 78 68 71 69 72 74 78 75 74 73 68 73 70 72 64 75 72 63 64 71 86 85 69 70
66 55 54 50 82 81 83 66 78 65 79 78 73 74 81 84 73 58 77 67 79 88 74 60 72 71 76 77 69 66 63 59 62 67 75 70 68 84 73 72 71 82 74 64 60 73 80 65 72 87 82 78 79 81
69 66 97 88 75 93 85 80 59 64 71 74 75 78 77 82 74 78 75 62 88 77 73 84 73 72 71 73 67 68 67 59 67 79 72 66 72 73 68 67 68 71 66 58 69 81 80 81 78 79 82 81 78 78
65 92 94 90 79 84 81 78 76 63 77 79 82 78 83 77 81 76 78 73 80 88 82 79 80 76 86 87 77 74 71 58 62 69 76 59 67 67 70 66 70 69 67 84 87 88 88 87 84 88 80 78 75 71
67 94 83 81 88 75 71 76 80 85 74 83 84 74 82 83 82 84 62 92 82 89 92 89 91 86 80 72 76 72 64 55 56 73 61 57 63 79 80 80 86 83 72 86 88 88 86 84 87 82 83 78 74 72
69 84 74 67 62 62 80 79 64 76 86 82 79 87 84 84 83 72 79 76 77 89 77 84 84 80 81 74 71 66 62 62 70 64 61 58 62 66 76 83 83 73 78 83 85 82 83 85 84 83 83 82 77 72
75 77 85 86 80 72 86 84 85 80 79 60 68 85 82 79 82 89 91 86 87 83 84 81 76 72 78 75 79 82 84 83 83 78 75 78 77 85 91 92 88 77 85 87 88 87 84 84 83 82 81 82 80 74
88 86 79 89 88 88 87 88 84 66 60 73 87 80 86 67 94 96 86 82 86 87 90 90 91 89 88 84 84 83 85 86 88 89 86 90 92 89 83 87 87 86 88 90 87 82 80 82 81 80 80 80 80 78
84 84 82 86 87 84 95 97 100 99 73 85 82 67 63 90 99 88 89 91 92 97 96 92 92 90 91 91 93 90 88 88 89 83 82 83 82 88 87 88 90 89 87 86 87 89 86 87 85 85 84 84 83 82
77 88 88 81 84 93 98 98 99 96 98 99 98 100 88 99 99 88 88 89 90 92 94 93 92 88 88 87 88 90 92 89 85 92 92 92 90 88 87 88 87 86 86 86 87 86 85 81 80 80 78 80 79 77
89 87 83 85 86 95 97 96 93 93 93 96 92 98 98 100 97 95 90 93 90 91 85 85 86 89 86 85 91 94 82 86 86 88 88 87 86 87 87 86 88 86 84 81 79 78 76 77 80 79 78 77 76 76
95 93 88 91 90 91 91 93 86 87 89 90 90 91 89 90 88 95 83 86 92 93 94 92 95 92 88 86 87 86 81 85 86 82 81 83 83 86 89 89 87 82 77 78 78 77 76 75 76 76 78 78 78 77

GFSWCAN_sfc_rhum_108.txt.gz
RH
67 78 82 79 80 79 85 84 89 88 88 87 91 85 83 80 85 92 91 72 94 100 60 71 58 73 55 51 60 57 54 54 54 65 55 59 71 46 66 93 51 53 56 59 53 60 77 59 54 77 89 78 80 79
72 78 82 83 81 88 88 92 90 90 88 87 86 83 77 77 78 81 89 70 69 97 64 56 52 45 47 45 53 50 47 50 56 48 38 43 62 67 65 73 62 88 95 90 90 92 79 71 85 79 79 81 84 80
78 80 83 84 90 89 90 90 90 90 86 82 79 79 79 74 74 78 97 72 71 68 61 54 54 43 36 43 44 44 36 42 50 54 74 59 61 50 70 75 64 58 58 83 82 78 76 75 72 68 72 75 75 75
76 82 89 89 93 90 84 84 84 83 80 78 79 79 80 76 80 82 95 63 70 76 84 59 37 42 33 34 37 44 46 45 46 52 64 69 64 57 77 64 64 48 51 71 90 82 77 69 72 74 75 72 73 72
79 86 90 91 90 85 85 84 84 82 80 79 77 75 77 82 82 83 91 70 65 82 72 60 45 35 32 34 36 38 44 52 47 48 64 67 50 58 59 59 63 53 92 76 86 69 79 83 73 71 77 78 73 66
79 88 89 89 84 86 86 85 82 79 79 77 74 73 76 80 80 93 100 60 52 70 61 69 45 44 39 38 39 40 39 41 35 43 45 45 51 59 73 77 60 53 62 60 90 76 82 79 71 63 71 66 61 61
86 91 90 86 86 86 84 82 80 79 83 82 81 82 81 80 86 82 80 63 67 63 89 69 54 46 40 38 41 42 40 42 40 37 40 39 43 50 70 75 59 61 68 71 69 73 79 71 76 63 60 55 55 52
88 92 85 86 86 85 83 81 78 82 83 82 82 79 75 74 76 68 59 67 74 72 62 69 67 57 46 49 56 46 45 42 49 46 41 38 41 42 74 82 63 67 72 68 66 59 61 57 53 53 52 50 54 54
91 86 86 86 85 85 83 81 80 81 81 80 79 78 68 76 53 55 70 69 64 58 63 63 69 77 54 57 54 48 45 76 42 53 43 40 64 68 67 64 71 74 72 76 62 56 53 53 51 51 50 51 54 56
89 87 86 86 86 86 86 82 83 81 74 69 59 65 95 62 69 68 64 69 65 46 48 64 54 76 56 70 71 60 52 58 65 52 49 63 71 53 50 54 59 63 64 61 70 70 61 57 55 53 52 50 51 55
91 86 78 80 85 87 88 84 82 71 63 52 71 86 56 65 57 46 78 66 60 56 45 52 53 65 46 79 69 47 59 57 56 67 57 67 62 64 53 57 59 60 65 64 56 59 58 55 59 58 57 57 58 58
87 82 80 84 86 82 78 74 69 56 52 57 58 53 54 54 61 68 67 56 55 49 56 64 56 55 52 43 63 54 52 58 65 60 63 61 81 68 69 78 74 73 70 67 60 61 63 61 60 61 62 67 85 87
81 81 86 84 79 71 69 71 74 71 66 55 50 53 55 60 83 76 80 62 76 69 71 75 86 66 53 60 78 64 85 79 62 80 69 86 77 83 91 80 80 75 73 74 69 70 66 65 67 73 90 93 88 90
81 82 83 79 78 82 80 71 62 62 57 52 64 87 87 85 72 84 90 91 83 84 77 85 91 90 76 91 80 80 84 71 77 76 88 83 85 98 93 85 92 94 99 98 89 88 90 93 95 92 91 90 92 94
83 83 80 82 82 73 67 63 63 51 56 67 64 83 84 87 90 98 95 89 89 81 78 80 76 69 78 85 79 70 78 74 68 96 94 88 92 97 98 98 97 97 96 96 93 94 94 94 93 94 93 91 91 90
79 72 69 80 73 66 60 60 50 49 55 70 79 87 92 94 98 100 100 100 80 79 76 68 84 86 82 71 72 69 68 76 96 95 96 92 95 96 96 93 94 94 92 94 94 93 93 93 92 92 93 90 88 89
70 64 78 73 68 66 64 48 52 57 68 73 96 100 100 100 100 100 100 88 69 82 97 61 76 66 63 61 63 66 90 96 92 94 92 93 94 97 97 97 97 96 94 94 94 91 91 90 90 81 78 76 67 77
66 66 74 65 60 55 49 47 58 58 81 92 88 100 100 100 100 100 98 86 81 63 61 74 68 69 76 66 87 97 94 94 93 85 93 95 95 95 96 95 96 96 93 92 88 88 89 84 62 55 54 55 59 63
61 58 72 68 59 52 54 56 55 71 88 85 85 83 88 98 89 84 82 75 60 53 60 63 74 73 88 96 98 96 93 90 92 90 95 94 90 91 91 90 89 89 88 84 75 74 66 52 51 51 52 52 60 64
79 79 73 71 70 44 56 66 53 65 86 82 76 80 81 87 84 99 84 67 64 66 61 63 86 98 100 100 95 92 84 86 86 91 95 93 88 88 87 82 78 79 75 69 65 64 52 53 51 51 56 59 73 76
57 57 66 54 48 48 56 64 73 65 67 81 73 75 79 74 84 88 83 72 73 62 65 84 100 100 98 96 79 82 80 74 78 81 82 87 85 80 77 76 75 71 72 70 67 63 67 66 61 61 81 88 86 87
50 66 53 51 58 56 66 63 66 61 65 68 69 69 84 90 88 87 69 75 72 88 91 92 94 91 87 78 74 67 76 73 74 77 77 78 83 83 80 82 76 81 78 77 69 77 75 66 74 77 88 89 80 81
61 53 54 50 80 78 81 62 74 66 78 75 70 71 76 79 77 60 74 67 85 87 81 70 74 74 85 73 71 70 65 63 68 73 80 77 78 85 81 80 78 86 82 72 68 76 86 75 81 92 85 85 91 88
66 67 95 84 74 87 78 76 59 64 66 68 67 70 75 78 69 72 72 68 93 76 70 80 69 70 71 72 71 71 66 66 80 82 79 79 85 82 79 76 77 77 74 69 76 89 84 88 88 85 87 89 86 86
65 92 92 85 75 75 74 73 76 61 75 72 75 72 79 73 78 70 70 88 82 91 84 80 80 83 91 94 88 83 76 67 78 79 86 74 78 81 80 75 78 74 77 90 92 93 91 92 91 89 88 88 85 85
75 91 79 75 80 70 65 70 71 76 70 75 75 75 77 79 76 75 71 98 85 90 96 94 93 88 84 84 90 78 67 57 68 83 70 72 74 86 88 89 89 92 83 86 91 91 92 90 91 87 88 82 80 82
70 78 66 62 57 54 73 72 58 68 73 73 72 80 78 78 76 81 84 79 86 93 81 92 93 93 89 85 75 71 68 70 77 69 68 70 72 75 82 87 88 82 82 86 87 89 89 92 90 90 93 85 82 81
68 71 79 80 72 66 80 75 77 75 70 54 65 76 73 75 93 88 93 85 86 82 81 82 82 84 87 85 86 87 86 84 87 84 82 83 88 92 94 90 81 83 93 90 90 87 88 89 91 87 85 86 87 82
80 78 71 80 80 80 79 80 77 67 65 72 84 82 80 76 90 92 86 85 88 86 90 89 92 93 91 88 88 88 85 85 86 88 87 91 92 95 93 94 95 93 94 96 96 92 88 89 88 86 84 86 87 85
78 81 77 75 79 76 92 95 99 95 75 88 83 67 63 89 94 85 86 87 87 90 96 96 93 92 94 94 94 94 93 91 90 87 88 89 90 94 96 95 95 94 93 93 94 94 88 87 85 86 88 89 89 88
81 85 80 72 74 95 97 92 92 90 92 92 91 95 90 99 98 85 84 93 94 95 93 89 92 91 92 92 93 91 95 92 91 91 94 92 91 92 94 92 92 94 92 92 92 91 91 90 88 86 85 86 85 85
86 83 78 74 85 91 90 89 86 87 84 90 87 89 89 92 88 96 92 89 92 93 90 90 91 92 89 96 99 95 82 90 89 93 85 90 92 91 92 93 91 89 88 89 88 87 83 84 86 85 87 83 82 84
89 87 88 87 83 84 86 89 81 82 88 84 87 90 89 91 94 94 85 86 93 95 96 96 96 98 92 94 93 93 89 89 84 82 85 88 89 91 92 92 91 90 87 86 84 83 82 82 83 82 83 85 85 84

GFSWCAN_sfc_rhum_111.txt.gz
RH
65 66 76 83 82 80 80 82 84 83 82 81 83 84 85 90 89 92 98 95 98 100 98 83 82 96 93 90 96 75 76 70 74 85 85 92 98 81 80 86 60 72 80 86 80 89 97 74 69 85 94 88 86 91
68 71 80 80 82 81 80 80 82 81 81 84 84 85 90 88 84 84 98 84 93 99 95 80 72 76 74 67 72 69 70 64 82 74 67 65 87 90 85 96 75 88 91 96 95 99 86 76 90 88 82 91 88 91
70 77 80 82 86 85 83 86 86 89 90 88 86 89 85 84 83 84 97 98 97 99 89 77 70 52 46 49 58 66 65 59 67 76 94 84 74 78 92 94 86 79 76 94 94 84 82 82 77 80 81 85 81 79
73 76 83 86 88 92 93 91 90 90 90 90 90 86 83 82 80 86 97 94 97 95 99 71 43 52 45 46 53 56 58 56 60 73 89 94 92 83 90 83 86 73 73 87 96 86 80 80 79 80 80 77 82 86
75 80 85 90 95 91 89 88 89 87 84 82 81 78 79 76 75 91 96 97 95 95 93 78 55 46 43 47 51 53 59 63 74 70 87 90 76 83 82 85 93 80 87 94 95 84 86 92 84 74 81 79 81 82
79 85 90 93 88 86 85 83 82 81 81 80 80 78 77 79 88 98 100 90 85 88 91 92 60 55 49 51 53 52 59 63 67 72 72 74 63 82 94 98 80 79 82 78 93 88 88 82 78 70 78 76 73 75
84 89 91 91 87 85 82 80 79 78 79 80 82 82 84 84 94 98 95 83 76 89 95 89 74 60 56 54 61 62 57 63 70 59 64 72 71 70 95 96 85 85 84 83 78 78 87 79 86 68 64 61 62 63
85 92 86 86 85 82 82 82 81 83 83 81 81 82 83 83 81 86 81 73 83 93 88 92 91 80 59 76 75 66 67 68 68 68 64 70 62 69 96 92 83 83 81 78 76 73 72 65 62 61 60 58 62 64
92 91 88 86 83 81 82 83 83 82 83 82 79 82 86 91 93 76 66 71 89 81 92 87 92 94 71 79 76 71 71 92 66 82 72 68 94 89 86 88 88 84 82 83 69 66 64 68 64 63 60 60 63 66
94 88 87 84 82 81 81 82 83 82 80 76 72 88 100 83 66 71 71 88 84 69 72 88 80 94 83 96 93 85 85 89 91 82 78 94 96 72 70 76 78 69 69 69 76 75 68 67 67 64 61 61 63 67
88 88 86 85 82 80 81 81 78 70 63 79 96 97 78 69 83 77 89 88 90 80 73 77 77 87 71 91 94 78 90 87 87 90 87 95 96 88 74 78 74 69 68 69 68 72 70 65 70 70 70 67 67 66
85 84 84 84 82 80 82 78 66 69 77 74 76 69 75 79 87 81 92 82 81 71 75 86 81 77 74 69 89 82 82 86 85 88 89 90 96 86 84 80 80 79 76 74 67 70 76 72 73 73 80 82 88 86
76 78 84 83 78 71 66 65 71 72 74 71 69 71 79 86 90 86 95 86 94 93 88 90 91 86 80 86 94 92 88 94 86 89 92 100 96 98 95 85 85 82 80 78 81 78 74 75 81 88 92 92 90 92
85 82 78 74 79 79 73 66 66 75 79 77 85 93 92 96 96 100 99 99 96 95 94 96 98 96 97 94 96 82 95 92 92 93 96 99 98 98 97 95 92 99 98 90 89 89 92 93 96 95 92 92 92 93
81 80 80 80 75 68 63 63 66 79 79 87 85 97 96 98 98 99 99 99 98 94 94 96 95 93 95 89 86 86 89 86 90 98 100 98 98 98 98 98 98 97 96 96 94 94 95 94 95 97 94 94 90 90
73 71 80 77 70 63 63 69 70 70 76 89 93 93 96 95 97 94 98 99 95 94 94 94 92 92 92 90 90 85 90 96 99 100 99 97 98 97 97 97 97 95 95 96 95 95 95 94 94 96 94 92 93 93
67 82 76 68 66 61 60 69 71 71 90 87 99 100 99 98 98 99 100 100 97 95 98 94 82 80 90 89 85 95 100 99 98 100 98 95 96 97 97 97 97 96 96 96 96 96 95 95 93 89 91 92 84 88
77 81 70 66 69 68 67 70 85 84 94 99 98 99 96 99 99 99 97 97 97 95 94 90 90 81 89 85 98 98 99 99 98 98 98 98 97 97 96 96 96 96 96 96 95 95 95 93 81 80 75 72 76 78
72 70 69 68 70 73 76 75 74 90 98 97 97 97 98 97 95 92 90 95 87 78 90 92 84 95 99 100 99 99 97 97 97 98 98 96 94 96 97 96 96 96 95 93 88 88 85 73 69 68 70 71 83 86
74 74 75 72 70 68 72 84 74 87 96 96 96 96 97 97 96 98 100 93 87 88 88 86 100 97 100 100 98 94 96 92 92 96 98 98 96 94 95 93 92 90 87 84 82 81 77 74 62 66 72 78 86 91
67 68 67 67 66 72 87 89 86 80 92 95 93 93 94 92 92 96 94 88 93 96 98 99 99 100 100 98 96 90 88 85 92 93 90 96 95 89 92 89 86 83 87 90 85 80 87 76 73 69 87 94 96 96
68 69 72 72 82 71 89 83 80 78 89 87 92 88 94 95 89 93 72 73 85 99 99 99 100 98 99 92 92 88 89 83 88 85 90 89 95 93 94 93 88 95 94 94 82 91 89 80 86 95 94 94 89 92
70 68 80 74 85 84 93 86 85 86 89 84 88 84 83 88 83 78 84 71 97 98 94 93 92 90 89 86 88 83 79 83 94 90 91 93 91 92 94 88 92 92 92 89 88 93 92 85 93 92 93 90 90 93
73 90 95 95 86 92 92 90 75 71 78 86 86 82 81 79 74 77 90 98 99 91 91 90 94 90 87 86 96 93 93 88 89 92 91 89 93 94 90 86 94 94 90 90 88 96 90 95 91 92 93 91 93 93
83 90 91 93 91 88 86 85 88 84 90 80 84 93 87 77 88 83 82 100 98 97 97 89 89 96 96 98 97 95 86 90 88 97 97 87 92 97 95 95 97 95 91 91 96 96 97 94 92 93 92 90 90 95
93 93 89 84 90 84 83 86 84 88 88 87 93 91 78 82 78 82 97 97 97 94 97 98 97 98 99 99 97 94 88 86 88 95 96 86 89 92 95 96 98 98 97 92 93 95 95 93 92 94 94 92 93 91
88 90 88 86 89 79 88 90 85 90 85 87 94 84 80 97 91 99 91 96 99 96 99 99 99 99 98 95 91 91 90 94 96 94 97 97 97 95 92 92 93 97 98 95 89 89 92 93 92 94 95 94 90 88
86 84 91 90 86 86 91 90 87 87 86 88 90 86 85 90 99 99 99 88 86 92 95 97 97 97 95 96 95 96 97 97 93 93 94 96 98 98 96 94 91 92 94 91 90 88 89 91 93 90 89 91 94 91
90 92 88 79 82 86 90 92 92 96 98 94 91 94 95 94 98 92 92 88 85 92 92 91 99 97 97 97 96 96 95 96 96 97 97 99 98 98 98 95 97 96 95 95 90 92 91 89 88 90 91 93 92 91
94 92 91 89 86 92 99 98 98 98 96 93 96 94 94 96 99 90 86 87 89 91 91 93 93 92 96 97 98 98 98 98 96 95 96 97 95 98 98 97 96 96 96 94 95 96 93 91 90 90 91 94 92 94
92 82 85 88 90 97 94 93 93 92 93 91 91 93 99 99 99 97 97 98 98 96 97 98 98 95 95 96 96 97 98 99 97 96 96 92 94 97 96 96 95 93 92 92 92 92 93 93 93 93 94 94 95 93
88 85 91 89 98 93 90 89 90 87 84 89 89 94 94 96 89 99 98 97 98 99 98 98 98 98 97 98 95 95 92 96 97 94 93 92 94 94 95 94 92 93 93 93 94 93 90 90 91 92 93 93 94 95
95 95 94 96 97 89 92 89 82 86 92 87 88 96 98 98 98 99 97 97 98 98 98 98 99 99 98 98 98 97 94 94 96 93 90 92 93 93 93 92 92 93 92 93 91 89 89 90 93 91 93 94 94 94

GFSWCAN_sfc_rhum_114.txt.gz
RH
60 64 67 68 89 79 77 78 79 80 80 80 79 80 84 82 85 94 98 96 96 100 93 92 92 94 93 94 96 98 93 84 84 84 91 96 96 88 83 82 61 65 73 83 82 94 93 77 71 80 92 92 95 96
64 67 69 79 82 82 82 80 84 82 84 83 84 84 85 84 81 89 99 95 95 98 97 92 91 85 81 83 82 76 76 74 82 80 82 84 99 98 87 92 77 84 83 92 94 94 94 87 95 92 88 92 92 94
66 70 72 79 80 82 80 81 80 82 85 86 84 82 86 88 90 85 98 96 98 96 98 98 97 79 70 80 66 70 75 66 74 76 92 87 78 85 93 95 88 87 78 97 92 92 89 92 87 82 82 91 88 85
70 73 80 80 82 82 85 86 88 86 86 83 82 84 88 92 84 86 96 98 99 96 98 92 66 71 77 72 58 60 57 62 68 78 92 93 91 82 91 85 90 82 76 92 96 93 85 88 85 85 84 84 87 85
72 76 84 88 92 89 90 89 88 88 88 85 85 84 90 86 84 94 97 96 98 95 95 78 59 50 48 52 55 58 58 62 75 72 89 93 83 90 90 88 95 85 91 93 93 83 85 92 87 80 87 87 90 90
82 84 90 91 93 92 89 89 89 88 87 86 90 85 84 84 87 97 100 95 96 97 91 94 69 64 56 55 56 57 62 68 71 76 84 83 69 81 96 99 90 90 86 79 95 81 88 87 80 74 81 82 83 84
88 94 93 90 87 86 83 84 85 85 85 83 82 81 82 87 94 98 96 95 85 95 94 89 78 64 60 61 71 68 63 72 67 70 72 79 73 78 96 98 97 91 88 86 83 84 92 82 90 73 74 77 76 73
94 91 84 84 82 82 82 84 83 82 82 82 84 85 90 85 83 89 83 75 88 96 88 94 92 75 61 80 73 75 72 76 73 72 74 73 66 83 97 98 94 88 85 80 78 79 77 73 71 70 66 70 76 78
92 83 83 83 82 80 81 81 80 81 82 84 88 87 92 94 97 79 70 69 90 85 91 89 91 90 76 86 81 73 80 90 77 84 75 75 95 89 91 96 93 89 89 87 75 74 74 74 71 71 71 71 74 74
88 84 83 82 82 82 83 83 82 80 82 81 89 98 100 94 69 71 73 87 82 74 82 88 86 90 83 97 93 84 90 90 89 82 80 93 97 85 79 83 84 84 80 73 87 87 79 79 75 72 70 67 68 70
85 83 82 81 82 84 82 79 78 77 75 92 99 98 86 73 80 78 89 83 90 80 84 85 80 88 76 89 93 83 90 90 88 89 86 96 97 95 87 86 81 78 71 70 75 77 75 72 73 72 73 71 69 64
82 81 80 80 82 80 74 70 69 72 82 81 75 76 83 85 88 79 93 83 80 74 83 84 80 81 85 77 86 90 82 87 88 92 88 95 97 91 89 87 87 82 76 74 70 71 76 73 73 71 70 73 79 84
83 83 79 81 76 73 68 72 76 76 75 72 74 75 78 87 88 81 91 87 93 95 90 92 92 87 84 86 94 90 89 95 90 94 92 90 98 92 87 87 85 85 80 81 84 81 80 82 78 85 93 90 86 86
83 79 76 77 79 75 69 67 71 74 76 80 83 90 85 94 98 97 99 98 96 97 91 95 98 96 98 93 98 90 95 90 97 96 92 96 98 97 90 84 83 95 91 86 88 89 91 94 97 96 95 92 88 89
78 78 76 74 70 68 68 72 72 80 81 87 86 99 99 99 99 99 99 99 98 95 92 94 94 92 96 89 93 89 91 95 91 96 98 94 98 98 98 98 98 98 95 95 92 94 96 95 95 96 96 95 90 90
71 72 82 68 65 64 64 70 71 76 83 91 95 94 98 92 96 98 99 100 97 96 96 93 95 94 94 91 89 91 91 95 96 100 100 98 98 98 98 98 96 96 96 96 96 96 96 96 95 95 96 96 94 87
74 89 73 63 66 69 66 73 75 78 93 91 99 99 100 98 99 100 100 99 97 94 95 92 85 83 92 93 88 92 97 91 99 100 99 96 96 98 97 97 97 96 96 96 96 96 96 96 95 92 93 91 84 88
86 81 67 64 67 72 76 78 86 89 95 99 98 99 95 99 99 98 99 98 96 97 94 88 90 84 95 91 94 99 100 100 99 99 99 98 98 97 96 96 97 96 96 96 95 95 95 94 89 91 84 78 80 78
74 71 70 69 69 73 80 78 80 97 99 99 99 99 99 97 97 96 97 97 94 86 89 92 90 99 96 97 99 99 99 98 99 99 98 98 96 96 97 96 96 96 96 95 91 91 90 86 88 88 78 72 78 82
72 74 76 72 72 75 78 84 81 90 98 98 96 96 98 97 97 99 98 94 88 90 89 94 97 100 94 99 98 96 97 95 94 97 98 98 97 97 97 95 96 94 93 94 93 94 92 79 72 71 76 78 86 94
73 69 74 74 77 80 95 93 88 88 95 95 97 94 95 96 94 94 94 88 91 99 99 96 96 100 100 98 94 93 92 88 94 95 97 97 97 93 97 96 92 89 92 94 94 93 92 82 76 77 90 95 96 95
72 70 77 78 83 80 92 89 86 89 90 93 97 90 95 96 95 95 87 90 98 100 100 99 99 99 99 90 92 83 85 83 85 91 95 95 97 96 98 97 95 99 98 97 89 90 90 78 79 82 94 98 97 94
74 76 86 80 82 84 92 91 89 96 92 94 93 87 94 96 90 79 86 78 99 98 98 97 96 90 90 90 87 84 86 87 91 91 97 98 98 98 98 97 96 96 97 95 87 92 91 87 93 94 95 96 95 96
78 90 94 94 86 96 91 90 80 75 84 92 92 88 81 82 73 85 96 97 99 97 94 92 92 92 89 85 93 96 98 90 92 95 90 94 97 98 91 89 92 93 89 89 92 93 94 96 93 91 92 93 94 94
66 80 86 90 92 88 90 91 92 83 96 88 87 99 88 84 94 88 88 96 99 89 84 90 93 94 96 98 98 95 92 88 90 95 97 88 94 98 96 93 96 95 90 94 96 94 96 95 94 92 90 90 93 93
97 91 84 90 92 86 88 90 91 92 94 94 99 91 78 82 83 86 98 98 99 98 96 96 97 98 99 98 96 95 92 88 91 98 98 91 91 93 96 98 98 98 95 90 94 95 95 94 94 94 93 91 92 94
94 92 93 94 94 83 90 92 87 90 92 94 98 89 97 99 98 98 97 95 98 96 100 99 98 98 98 98 96 96 97 96 96 97 99 98 97 95 92 94 99 95 95 92 90 90 92 94 94 94 94 92 92 91
90 93 91 91 89 94 96 96 92 91 91 94 88 93 90 94 98 99 99 88 90 96 98 99 99 96 97 97 98 98 99 100 97 97 97 97 98 99 97 97 97 98 95 90 90 90 90 92 94 94 94 94 95 92
93 96 86 84 86 88 94 96 96 98 96 98 93 97 100 98 100 99 98 96 85 85 92 98 99 98 97 98 98 97 96 98 95 98 100 100 98 98 99 98 98 97 96 96 95 94 94 94 94 93 93 94 95 93
96 95 94 94 95 96 94 96 99 98 93 93 99 97 98 96 99 97 96 96 97 92 95 94 96 97 99 99 100 100 98 98 97 94 96 97 94 98 98 96 97 97 96 96 96 96 95 95 95 95 94 95 96 96
94 93 91 94 91 99 97 92 92 92 90 91 95 96 99 99 99 98 98 98 99 99 98 98 98 96 95 97 98 98 98 98 99 98 97 95 98 97 97 97 97 95 94 92 92 93 94 95 94 95 95 96 96 94
87 79 96 93 98 98 93 88 86 88 95 90 94 90 97 98 90 98 98 98 98 98 98 98 98 98 95 96 95 94 95 98 99 98 96 96 97 97 96 95 95 94 94 94 94 94 93 93 95 94 94 96 95 94
97 98 98 97 98 96 96 93 93 87 96 91 87 98 94 90 88 98 98 98 98 98 98 98 98 99 98 98 97 96 96 97 94 94 94 96 96 96 96 95 94 94 94 94 95 94 95 94 94 94 94 94 94 95

GFSWCAN_sfc_rhum_117.txt.gz
RH
61 61 62 66 68 73 84 88 83 72 70 72 74 78 80 78 78 89 94 92 95 100 95 85 80 95 96 93 97 93 96 99 99 98 93 96 95 81 79 82 73 77 88 91 76 90 86 75 68 78 89 97 93 96
61 62 65 67 69 87 84 80 80 84 86 78 78 79 79 79 81 85 98 93 93 99 93 85 84 87 90 89 91 96 87 92 94 95 84 93 99 98 87 94 78 83 82 86 84 87 94 91 96 94 88 94 97 97
66 66 68 70 71 73 82 81 85 85 82 85 84 82 79 80 78 85 97 99 98 99 97 98 98 84 78 83 76 81 84 69 79 77 92 89 88 94 96 96 93 87 77 94 90 94 96 98 92 87 88 93 94 92
67 68 71 72 74 76 77 77 82 83 82 85 84 84 83 83 81 91 98 96 98 98 99 96 79 94 81 83 86 66 60 69 76 82 94 96 96 84 91 88 90 81 76 91 96 94 91 90 93 91 93 88 88 87
71 75 76 79 80 80 80 82 77 76 82 84 84 83 87 85 81 91 96 97 97 96 95 99 88 84 83 78 73 60 64 67 78 75 92 94 92 88 93 88 97 83 93 93 90 82 85 90 92 87 91 90 87 90
78 79 86 90 94 91 92 85 83 79 84 87 84 86 87 92 85 97 100 94 94 96 94 97 72 74 65 62 63 60 66 75 77 83 91 86 72 86 97 98 92 90 83 76 90 80 88 91 86 78 86 86 85 84
85 95 93 92 90 90 92 92 89 86 87 85 84 87 91 86 93 98 96 94 88 96 95 89 79 66 63 64 73 73 70 79 67 74 78 82 78 80 96 95 96 94 90 89 87 86 95 89 93 76 80 81 79 85
96 90 86 87 88 89 90 89 88 88 87 89 91 89 84 82 82 92 85 88 90 97 91 95 91 78 64 79 76 81 77 76 79 76 78 72 72 85 96 94 97 92 90 85 84 80 80 79 71 75 79 82 86 88
87 84 81 84 82 84 87 87 86 86 85 87 88 88 95 95 97 93 76 81 93 90 94 89 89 93 77 90 84 76 80 89 79 84 76 78 96 89 88 89 96 88 88 89 83 80 80 81 79 83 85 83 85 84
85 82 83 84 84 85 85 85 84 86 89 85 91 98 100 95 77 75 79 91 89 82 88 91 87 92 83 97 94 85 90 91 87 86 82 95 98 91 89 90 86 86 86 81 93 93 87 86 84 82 82 77 75 78
82 83 83 83 85 79 80 86 89 86 86 95 98 99 92 74 87 78 91 82 91 82 87 90 86 92 81 88 94 85 91 92 89 90 84 97 98 96 92 93 88 88 80 80 80 79 79 78 80 80 78 75 74 75
79 82 82 79 82 81 83 83 75 85 91 85 77 79 82 85 86 78 93 85 80 77 89 86 82 84 91 78 87 92 83 89 87 92 88 95 95 94 93 89 88 88 86 81 79 84 84 77 75 74 75 76 77 80
79 82 79 75 75 76 76 76 74 76 75 75 77 75 78 85 86 79 89 87 93 96 92 94 94 92 83 86 94 90 90 95 89 94 93 92 94 92 86 87 88 88 86 84 85 81 79 79 76 78 86 89 86 86
80 78 77 76 70 68 67 72 74 76 72 81 83 95 89 95 94 93 94 98 97 98 93 95 98 96 98 93 98 91 96 90 98 98 93 92 96 92 90 86 87 93 90 90 91 90 90 90 94 95 95 89 88 90
78 76 74 70 67 70 75 80 76 78 82 88 86 99 97 98 98 99 99 99 99 97 93 94 95 93 96 89 95 89 92 97 92 93 98 99 97 94 94 95 96 96 95 95 92 92 95 95 96 96 96 94 92 90
74 76 78 72 71 72 72 72 75 77 87 92 91 94 98 96 98 99 99 100 98 98 97 94 95 94 95 92 90 92 89 95 95 99 99 99 99 98 98 98 97 97 96 96 96 95 96 96 96 96 96 96 96 94
74 88 70 70 71 72 72 72 79 88 95 91 98 99 99 99 99 99 99 97 97 92 95 92 86 86 93 94 92 86 98 97 99 100 99 98 98 99 98 98 98 97 96 96 96 96 96 96 95 94 94 95 93 93
82 79 68 71 70 72 78 79 89 90 94 99 98 99 99 99 99 99 98 98 96 97 94 88 89 87 98 94 91 93 99 100 99 99 99 99 98 98 97 97 97 96 96 96 95 95 95 95 93 93 92 91 91 80
72 70 70 69 70 76 82 80 85 97 98 99 99 99 99 98 97 98 99 98 94 89 90 91 96 95 93 91 99 98 99 98 98 98 99 98 97 97 98 97 96 96 96 95 92 92 93 92 92 92 92 91 86 80
72 76 76 72 70 78 78 86 83 90 99 98 97 96 98 98 99 99 95 93 87 91 95 96 94 99 93 98 99 97 96 95 95 97 98 98 97 96 97 96 96 95 94 94 94 94 94 94 93 93 93 92 88 89
73 73 76 74 81 84 94 91 88 93 95 96 98 97 96 94 94 95 93 86 93 98 99 94 95 100 99 99 96 93 94 90 94 96 98 99 98 93 97 97 94 93 93 94 94 96 95 94 93 92 95 95 94 93
76 73 78 78 86 84 94 95 92 93 95 98 95 94 98 96 97 96 90 91 100 100 100 99 99 99 97 92 93 84 87 85 88 91 95 97 99 97 98 99 98 100 99 97 94 95 95 90 89 90 93 96 92 92
76 78 85 76 82 84 95 93 94 93 93 94 96 90 96 98 95 81 92 92 99 99 99 98 96 99 95 90 88 88 86 87 91 92 96 99 98 99 99 99 98 98 99 99 91 93 93 84 87 92 92 91 94 96
74 88 94 94 86 97 89 92 80 77 86 96 94 89 89 93 78 92 96 97 100 98 93 95 94 93 92 90 93 96 96 90 93 97 93 94 99 100 97 96 96 97 95 92 91 96 95 94 92 94 94 95 95 95
68 84 86 92 90 88 93 94 94 84 95 90 94 98 92 90 94 94 90 96 100 84 92 91 95 91 96 98 98 97 94 88 91 94 96 90 96 98 98 98 98 97 94 96 98 97 98 96 94 94 94 94 94 95
77 87 83 93 93 86 90 92 95 94 96 99 99 91 85 85 92 89 98 99 98 98 96 95 96 98 99 98 96 95 95 90 92 96 98 92 92 95 97 98 99 99 96 91 94 96 96 95 94 94 95 95 94 94
96 94 93 93 95 83 91 94 87 92 97 98 98 90 98 99 99 92 98 96 95 96 99 99 98 96 97 99 98 99 99 97 97 97 98 98 98 95 94 95 98 95 95 92 90 91 93 94 94 94 94 95 94 94
91 92 82 87 93 96 97 98 95 91 93 95 89 97 94 92 95 98 99 96 96 97 99 99 99 98 97 98 98 98 98 99 99 99 98 97 99 99 97 98 97 95 93 90 90 90 90 91 93 94 93 93 95 95
93 96 87 91 93 93 98 98 98 93 94 95 92 98 95 99 99 99 98 95 89 88 91 97 99 98 98 98 98 99 97 97 97 98 100 100 100 97 100 100 98 99 98 96 93 91 92 93 94 94 94 94 95 95
96 96 96 98 96 95 99 98 98 99 98 98 97 97 98 99 99 99 97 97 98 94 96 93 98 98 98 98 98 98 99 98 96 96 97 98 97 98 100 98 98 98 97 96 96 96 96 95 96 95 95 96 96 96
97 95 94 97 93 98 99 98 98 98 96 98 98 98 99 99 99 98 98 98 99 99 99 98 98 97 96 97 97 96 96 96 100 99 96 97 98 99 98 98 97 96 94 94 94 94 95 95 95 95 95 96 96 95
92 85 97 97 94 99 98 97 87 93 99 96 100 98 98 98 94 98 98 98 98 99 98 98 98 97 94 95 96 95 91 97 100 100 98 99 100 100 98 97 96 95 94 94 94 94 94 94 95 95 96 96 96 96
100 100 99 98 98 96 98 96 100 97 99 98 94 99 98 94 88 96 99 99 98 98 98 98 98 99 98 96 97 97 95 97 97 96 96 99 97 99 97 96 96 95 94 95 95 95 95 95 95 96 96 96 95 95

GFSWCAN_sfc_rhum_120.txt.gz
RH
67 62 61 62 62 66 67 70 72 70 70 72 76 77 78 77 76 89 92 94 93 99 95 94 86 95 92 96 92 93 98 98 100 98 95 94 97 79 85 88 89 86 91 95 92 96 92 76 73 72 84 95 93 93
62 62 63 63 65 67 67 75 81 79 73 73 71 75 77 78 77 83 97 96 92 96 99 91 86 84 90 93 89 95 89 94 95 96 99 99 98 94 81 88 75 88 86 88 83 87 95 94 94 91 88 92 96 95
64 65 66 66 66 68 69 91 90 84 83 76 72 70 72 74 77 83 97 97 96 99 97 98 98 91 86 90 88 93 86 80 93 88 97 98 97 95 92 92 91 89 81 92 84 95 97 95 89 88 88 90 93 92
66 66 66 67 68 69 69 79 84 84 82 83 78 77 74 74 75 77 94 96 92 98 99 92 82 97 83 82 87 87 68 75 83 91 98 98 98 88 94 88 90 85 81 91 95 97 94 93 89 92 92 90 93 90
65 66 70 75 73 72 70 79 78 88 84 83 83 82 79 78 77 86 96 96 96 99 99 97 92 83 83 89 90 87 88 83 96 97 98 94 95 93 95 92 98 85 92 90 88 81 83 91 93 87 91 94 90 89
66 72 76 76 75 78 76 74 78 80 84 85 82 82 84 82 81 97 100 98 90 99 99 98 95 96 89 87 93 96 82 77 84 89 94 93 81 90 98 97 90 89 82 76 90 83 89 92 90 83 91 90 83 84
78 86 90 93 96 95 89 82 78 78 77 85 82 85 84 84 95 98 95 93 90 97 100 98 98 96 85 81 87 78 72 76 70 85 88 91 88 92 98 97 97 95 92 90 88 87 96 90 94 83 82 82 80 83
97 97 92 93 91 92 92 85 81 79 80 87 87 86 84 82 88 92 88 87 93 98 93 92 92 83 72 87 88 84 80 79 85 84 84 81 79 89 96 97 97 96 91 87 86 83 83 84 79 78 82 87 89 89
87 90 92 89 89 90 91 88 81 83 87 85 86 90 94 96 99 96 83 86 95 93 94 87 91 94 80 90 87 82 83 90 83 85 80 81 96 88 87 94 97 91 88 90 87 84 83 82 83 87 89 86 84 85
88 88 92 90 87 87 86 86 86 86 90 91 92 98 100 99 88 85 92 98 97 92 94 92 91 93 87 98 94 87 90 90 89 91 84 96 98 92 93 90 89 87 88 84 93 95 88 89 87 88 85 81 80 82
82 85 84 88 89 90 90 91 90 88 83 95 99 97 99 92 91 87 94 88 93 89 93 92 90 93 85 88 95 88 92 93 88 90 84 96 97 96 94 94 88 89 86 86 83 82 80 81 87 87 85 80 80 80
83 83 88 90 88 89 89 88 81 89 94 86 92 91 86 89 88 76 91 86 83 83 93 89 84 87 92 79 89 92 84 90 88 93 90 94 92 95 95 93 91 90 88 87 84 86 87 83 81 81 81 81 85 84
76 80 86 90 87 79 80 78 78 78 76 75 77 73 79 85 84 82 89 88 96 96 94 95 95 93 81 86 93 91 90 95 89 93 92 94 95 94 93 91 94 91 88 89 90 87 83 82 79 82 94 95 90 89
78 76 75 75 76 78 79 76 73 77 75 83 82 95 91 97 92 96 96 98 97 98 95 95 97 95 98 96 98 91 97 90 97 98 91 96 95 94 92 91 93 94 92 92 93 91 91 90 95 95 95 95 94 94
76 75 74 76 77 78 74 77 76 79 84 89 85 99 95 98 99 99 99 99 99 97 96 93 94 91 95 91 95 90 92 97 93 93 97 94 96 95 94 93 96 96 96 96 95 95 96 95 95 96 96 96 95 95
74 71 77 77 74 79 75 75 76 83 90 93 90 95 98 98 99 99 98 99 99 98 97 93 94 93 97 91 90 90 88 93 94 98 98 99 98 97 97 95 98 97 96 97 97 95 96 96 95 96 96 96 96 94
70 81 76 76 75 76 75 73 82 88 96 90 98 99 98 99 99 99 100 99 97 94 95 92 88 90 93 94 95 85 98 97 99 99 99 98 98 99 98 97 97 97 97 97 98 96 97 96 95 94 94 96 94 95
79 78 75 74 71 72 80 82 89 89 95 99 98 99 98 99 99 99 98 98 94 96 94 87 90 92 98 96 89 92 99 100 99 99 99 99 98 98 97 97 97 96 97 98 96 96 96 95 93 94 93 93 93 93
79 84 73 71 72 78 82 83 86 96 99 99 98 98 98 98 99 98 98 97 92 86 90 94 93 90 93 93 99 98 99 98 98 99 98 98 97 97 97 97 97 96 95 96 93 93 92 92 91 92 91 92 91 93
70 76 78 77 71 79 78 87 85 89 98 98 97 97 98 99 99 98 96 93 92 93 93 94 92 98 97 99 99 97 96 94 94 97 98 98 97 96 97 97 97 96 95 95 95 95 94 94 94 93 93 93 94 95
71 74 77 75 83 85 94 93 91 95 98 98 98 97 96 91 93 96 93 90 96 96 96 94 98 99 99 99 96 93 92 88 86 94 96 98 98 93 95 98 96 96 96 95 95 96 96 94 94 93 95 96 96 96
82 75 80 78 86 83 94 96 93 94 96 98 97 94 98 98 98 95 93 97 95 98 96 99 99 99 97 89 91 85 89 87 88 96 98 97 99 98 97 99 98 99 98 98 95 96 96 94 94 95 96 96 94 95
74 76 84 76 81 85 96 94 93 91 91 94 96 92 97 98 94 84 94 97 99 99 100 99 99 99 96 91 90 88 84 84 90 92 96 99 99 100 99 99 98 98 99 100 96 95 96 93 95 96 95 95 95 96
72 84 94 94 87 95 89 93 81 80 90 96 92 88 92 95 84 94 92 97 99 99 97 98 96 98 99 96 96 98 97 91 94 97 93 94 99 100 98 98 98 98 97 97 97 97 96 96 95 94 93 93 93 94
72 82 87 94 90 89 94 97 95 85 97 95 96 96 87 93 97 96 93 97 100 96 96 96 95 96 97 99 99 98 95 88 90 93 97 88 95 100 100 98 99 97 96 97 98 97 98 96 94 93 92 92 93 93
75 87 82 92 93 87 91 94 98 96 98 99 98 95 94 96 95 91 95 99 97 97 94 92 96 97 99 98 97 98 98 93 94 98 98 90 90 94 96 99 100 99 98 94 95 97 98 95 95 94 94 94 92 94
81 94 94 92 97 86 93 95 87 94 98 99 99 94 98 99 98 91 99 98 96 99 99 99 98 96 97 99 98 98 98 98 98 97 98 98 98 96 96 96 98 95 95 93 92 92 94 94 94 94 95 95 94 92
89 92 89 90 96 96 97 98 96 91 95 95 90 98 97 94 93 98 99 98 96 98 99 99 98 98 98 98 98 98 98 99 98 98 98 97 98 99 98 98 97 97 93 91 91 91 90 90 91 93 93 93 95 95
96 98 89 96 96 97 100 99 99 90 95 95 94 97 97 98 99 98 98 94 95 95 97 98 98 98 98 98 98 98 98 98 97 99 99 100 100 98 100 100 100 100 98 95 92 90 90 90 91 92 91 93 94 95
97 97 96 100 96 95 98 99 98 98 99 98 98 98 98 99 99 99 98 96 96 97 96 97 98 98 98 97 98 98 99 98 97 96 98 99 96 98 99 99 99 98 97 96 96 97 96 96 96 95 95 96 96 96
96 96 96 98 94 99 99 99 99 98 98 99 99 98 97 98 98 98 98 98 99 99 99 98 98 96 95 96 96 95 96 97 97 95 96 97 98 100 98 97 97 97 96 95 95 95 95 95 95 95 95 96 96 95
95 91 97 92 96 98 98 98 92 95 98 100 98 98 98 98 98 98 99 98 99 99 97 97 97 97 96 97 96 96 90 96 100 100 100 100 100 100 99 98 97 96 96 95 95 95 95 94 95 95 95 96 96 96
98 100 100 100 100 95 97 98 99 100 100 100 99 100 99 96 95 95 98 98 100 98 98 98 98 99 99 98 96 97 96 97 98 100 100 98 99 98 97 97 96 95 95 96 96 95 95 95 95 96 96 96 96 96

GFSWCAN_sfc_rhum_123.txt.gz
RH
66 68 71 63 60 60 61 62 64 67 74 78 77 77 78 79 79 90 95 92 94 98 88 88 84 89 88 87 87 83 94 97 99 98 83 86 93 75 83 85 78 78 86 86 88 88 86 61 60 62 86 88 82 87
66 65 63 62 62 63 65 66 70 68 69 69 74 80 79 78 77 82 96 93 93 94 90 90 84 80 80 78 81 89 81 94 91 84 85 81 96 92 80 89 66 88 88 87 75 80 84 82 84 83 77 82 89 87
63 63 64 64 65 65 65 66 71 79 74 72 72 73 77 77 76 82 97 99 97 92 92 95 85 74 80 81 80 98 90 74 89 85 93 92 95 79 89 87 75 70 69 76 75 80 79 86 80 74 75 80 84 80
63 65 65 65 65 65 65 68 70 91 84 81 73 72 74 78 80 80 96 98 93 91 96 85 80 87 78 79 84 81 80 75 78 85 99 96 93 81 85 79 89 64 67 73 80 89 87 83 77 76 82 80 84 81
63 64 65 65 66 68 68 67 69 84 87 81 81 72 71 72 74 88 96 96 90 91 97 90 87 80 81 88 90 89 89 88 94 99 99 96 99 98 95 94 81 72 85 79 72 65 68 78 82 78 84 86 83 82
64 65 66 66 70 74 70 71 74 82 85 85 74 69 69 71 74 97 100 95 93 92 99 96 89 92 88 89 92 93 92 92 98 99 97 98 76 81 87 86 77 82 72 71 86 77 84 87 80 72 80 81 77 76
68 71 74 76 76 75 71 75 75 79 84 85 81 79 74 77 92 95 93 86 84 95 100 98 96 99 99 93 97 97 97 98 95 98 92 81 79 76 90 88 90 87 84 85 81 80 95 82 88 75 72 72 74 71
91 96 96 96 94 88 79 78 79 77 83 83 83 84 82 82 81 88 87 87 89 98 100 97 94 99 98 99 99 85 96 92 86 69 74 70 71 79 89 92 90 88 85 80 78 74 73 77 74 74 72 74 76 78
94 94 91 91 93 94 86 81 81 76 76 85 84 84 89 96 99 95 87 91 97 99 98 90 96 97 98 93 88 80 76 87 76 76 69 67 82 78 78 88 92 85 80 86 81 79 77 78 78 79 75 73 75 78
89 86 91 94 93 87 86 83 81 80 92 89 92 99 100 99 89 92 98 100 100 100 96 81 77 93 84 89 87 82 79 78 78 78 73 84 83 85 87 79 79 77 79 76 87 91 82 83 82 80 76 71 70 73
90 89 85 87 84 83 83 84 84 92 87 98 100 100 99 90 97 99 97 96 94 85 86 82 81 84 78 84 85 78 82 83 77 83 75 83 84 89 86 82 77 78 76 75 71 71 71 73 79 79 78 73 72 73
88 90 90 89 89 88 88 89 85 89 92 84 94 95 98 99 91 77 86 82 77 75 88 85 80 80 82 75 83 81 74 79 79 83 79 82 84 91 88 84 86 82 79 77 75 77 77 75 75 76 77 80 83 83
82 84 87 88 88 84 82 83 81 82 83 81 77 82 87 79 84 80 91 84 92 90 90 91 91 87 76 78 87 79 84 89 83 88 81 84 88 89 87 85 86 82 80 82 84 81 78 80 77 82 87 91 92 94
74 78 83 84 85 82 84 80 75 76 73 81 80 94 90 96 91 94 93 94 94 97 93 91 92 88 90 90 92 86 95 85 91 90 80 88 90 90 86 84 83 92 92 90 92 91 92 92 96 94 94 96 95 95
74 77 80 82 80 77 76 78 76 80 82 87 81 99 95 97 96 93 98 98 97 92 90 88 88 83 88 90 90 87 90 90 86 87 90 88 92 94 95 93 95 96 96 96 94 95 96 96 95 96 96 96 95 95
72 69 79 80 72 72 77 74 78 79 87 89 90 93 95 97 99 99 98 99 94 93 90 86 85 90 91 86 80 82 80 81 86 94 94 96 96 94 96 95 95 95 95 96 95 95 96 96 95 95 95 95 95 94
68 78 74 77 77 74 72 76 82 86 90 88 98 98 98 97 99 99 99 95 93 90 91 83 88 92 85 87 91 83 94 94 97 99 98 98 97 97 96 96 96 96 96 96 96 95 97 96 94 92 93 92 92 92
74 78 80 76 71 71 81 84 88 85 94 98 97 98 98 98 98 97 96 94 92 88 84 82 84 91 96 95 82 93 97 99 98 98 98 97 98 98 96 96 96 93 94 96 94 95 94 94 89 86 86 87 90 92
87 88 80 79 72 78 80 82 85 96 100 97 97 97 98 98 96 94 93 91 86 81 85 85 88 85 88 94 96 96 98 95 95 95 95 97 96 96 97 96 96 94 94 92 88 86 86 87 84 84 83 83 85 86
71 76 80 77 71 77 77 87 84 87 98 96 94 93 94 95 94 92 91 90 88 85 86 88 89 97 95 97 97 94 94 92 91 93 94 94 94 94 95 92 90 91 88 90 89 90 88 88 86 85 85 84 89 92
72 76 77 77 84 85 91 90 86 91 92 95 97 92 91 86 90 92 90 86 92 92 95 93 99 100 97 95 92 92 91 86 88 86 88 92 93 89 90 90 88 87 86 88 89 90 90 87 86 86 93 94 94 93
82 75 78 77 83 79 93 93 89 90 92 94 93 88 94 97 94 91 87 95 91 96 89 95 96 92 88 82 85 80 83 81 83 88 92 91 95 93 92 92 90 94 92 92 87 92 90 86 89 90 93 95 93 93
73 75 81 74 82 84 95 89 91 85 89 93 91 88 95 96 89 79 92 94 94 97 93 90 96 96 92 89 87 85 81 78 85 87 92 90 89 94 90 90 88 94 93 90 84 88 92 89 91 94 93 94 94 95
70 82 94 94 86 95 88 94 79 83 88 92 88 88 90 94 84 89 92 93 98 95 95 98 93 95 96 94 94 95 94 87 90 94 90 87 90 90 86 86 87 85 83 84 87 91 92 94 93 91 94 94 94 94
69 80 88 96 89 90 96 98 95 85 99 96 96 88 81 90 96 95 90 95 97 97 97 93 90 90 94 96 96 96 94 84 87 86 92 82 88 91 92 88 88 85 86 96 97 95 95 95 94 93 92 93 92 92
68 88 79 92 94 87 91 97 99 98 96 99 98 92 91 94 95 91 86 96 93 94 96 94 94 92 90 91 92 95 92 86 84 88 87 83 84 91 94 98 97 96 89 89 94 95 95 94 94 92 93 89 89 92
75 93 94 90 96 85 93 94 86 94 97 98 97 96 95 99 96 86 96 95 93 97 96 96 93 92 92 94 95 94 94 92 91 91 93 92 90 87 89 93 95 87 91 90 92 92 94 94 94 92 92 90 90 90
87 90 93 92 98 94 96 98 97 93 94 89 89 98 98 96 91 95 96 95 96 96 97 97 96 95 94 94 94 94 95 95 97 96 95 94 93 94 96 95 90 97 91 91 91 91 90 90 92 93 93 93 94 91
97 97 89 99 97 99 97 96 97 88 94 91 95 95 90 92 96 96 95 93 95 95 97 96 97 96 96 96 96 96 96 95 94 98 97 97 98 97 96 99 100 97 94 93 90 89 89 89 90 91 90 92 92 93
98 96 95 100 95 96 95 97 97 97 97 96 96 97 96 97 98 97 96 94 94 95 94 96 96 96 97 96 97 96 96 96 96 94 96 97 94 94 99 99 99 97 96 95 95 94 93 94 95 95 95 95 94 94
94 96 96 97 96 98 97 98 98 98 98 98 98 97 95 97 97 96 97 97 96 96 96 97 97 94 94 95 94 93 95 95 95 92 90 93 94 99 97 96 93 95 95 95 95 94 95 95 94 94 94 94 93 93
99 93 97 94 90 98 98 98 97 97 98 98 97 98 98 98 97 96 96 97 98 98 95 95 96 95 93 93 94 93 88 90 100 99 99 100 98 97 96 96 96 96 96 95 94 95 93 93 94 93 94 93 93 93
98 98 99 100 100 88 97 96 95 97 96 100 99 99 97 95 93 92 96 98 97 94 96 96 97 97 96 94 94 94 92 93 95 99 100 98 99 96 96 96 95 95 95 95 94 94 94 93 94 93 94 93 94 94

GFSWCAN_sfc_rhum_129.txt.gz
RH
70 59 63 65 65 67 68 67 79 86 90 94 83 80 91 89 87 92 97 82 83 90 66 55 45 51 48 52 63 56 69 69 76 86 68 61 63 45 43 68 39 61 61 60 62 77 79 24 30 53 59 52 47 50
61 64 65 66 62 60 61 64 65 81 94 93 83 84 88 90 87 82 88 56 46 50 60 44 42 38 36 35 38 54 45 49 56 61 53 47 60 53 46 58 30 63 68 67 52 60 73 45 44 45 48 47 55 58
65 65 64 62 61 62 61 62 66 77 76 90 88 85 87 80 71 64 58 58 46 63 50 50 56 47 44 47 40 56 43 38 56 60 75 73 73 47 66 61 45 33 32 61 56 43 40 47 42 46 46 47 52 54
63 64 64 64 63 62 61 62 64 78 81 81 83 81 84 75 70 62 56 49 43 43 64 49 31 41 38 42 45 45 39 51 55 67 80 79 82 72 74 53 59 48 43 50 55 45 49 45 45 46 47 49 51 54
64 63 63 64 64 63 63 63 64 64 78 77 71 77 82 73 68 60 52 44 36 40 66 51 49 39 34 38 44 45 49 53 62 75 80 77 54 65 62 62 56 37 61 67 62 57 67 60 48 47 55 57 56 55
64 62 61 62 63 63 63 65 70 67 77 78 73 74 75 77 74 74 99 54 44 44 64 65 64 47 42 43 43 51 51 54 85 88 68 61 51 72 76 67 48 37 39 42 71 57 69 59 49 47 52 54 54 56
63 63 62 63 64 64 64 66 70 72 78 78 76 72 77 80 62 69 76 70 56 53 86 74 54 70 54 50 57 61 65 82 80 96 80 69 65 70 72 76 55 56 48 51 50 53 63 55 60 48 48 49 54 51
64 64 65 66 65 64 64 69 69 85 83 82 79 75 79 78 68 51 78 72 56 65 74 73 70 98 90 98 96 94 97 94 94 76 73 67 76 98 99 64 44 50 56 57 53 51 48 48 46 48 47 51 54 57
84 76 72 71 70 69 69 72 70 81 82 76 81 78 78 72 67 65 82 85 94 76 72 62 70 96 100 99 99 99 95 100 91 96 65 72 67 87 63 66 55 57 63 61 53 47 49 51 48 50 52 52 55 59
95 97 91 80 76 71 69 69 75 84 84 78 76 65 96 60 81 71 70 89 100 98 96 85 92 96 98 99 99 98 83 94 88 73 60 98 70 60 48 44 46 53 54 53 64 64 57 56 56 56 54 51 51 57
89 91 95 90 81 75 72 74 85 81 78 67 82 92 81 79 77 83 93 85 72 95 77 58 62 95 98 99 88 63 73 78 89 87 78 68 55 62 49 50 51 51 52 54 52 52 52 53 56 56 55 55 56 58
90 89 89 87 85 81 78 76 79 64 66 79 94 94 84 83 100 98 94 86 93 90 74 77 82 98 84 67 73 58 65 56 65 54 60 57 77 62 58 62 59 56 57 56 50 52 56 55 56 56 56 58 65 70
86 85 85 85 84 79 80 85 87 86 81 89 97 98 99 93 99 96 83 66 80 74 68 71 86 69 54 56 68 57 90 72 55 86 55 66 71 66 64 61 62 59 61 60 62 61 59 60 62 70 73 90 90 90
87 86 84 83 83 84 86 86 87 83 82 86 82 98 92 96 75 69 85 92 89 77 63 68 72 70 64 82 77 98 83 67 78 73 61 68 76 70 65 62 62 70 83 76 77 80 98 95 99 100 97 93 90 90
87 84 82 82 79 77 84 88 87 68 57 70 81 83 78 82 89 94 95 90 83 73 69 68 59 56 70 98 75 72 91 75 59 76 88 85 82 80 85 88 100 100 100 98 98 93 90 90 88 94 93 92 90 92
84 77 76 85 78 75 78 75 67 62 56 68 78 92 86 98 100 100 100 97 74 73 65 52 64 86 80 64 65 69 47 54 86 93 90 84 99 100 100 100 100 100 100 99 98 95 92 88 88 87 87 88 88 89
69 60 79 83 75 70 71 55 54 59 68 70 98 100 100 100 100 100 100 80 66 74 93 51 75 63 63 59 53 57 85 95 99 98 95 99 100 100 100 100 100 100 99 97 94 91 91 90 93 87 86 86 84 87
47 52 78 77 60 57 48 49 60 60 73 85 96 100 99 100 100 100 91 77 74 61 53 62 61 66 82 59 68 88 93 98 98 95 98 100 100 100 100 100 100 97 94 93 89 89 89 88 79 78 79 76 76 79
54 58 76 73 56 45 52 55 55 69 89 85 84 86 88 96 78 76 77 67 54 48 58 57 73 61 76 74 94 100 99 87 87 90 95 100 100 100 100 100 98 94 92 86 76 74 74 71 69 70 69 70 72 74
69 74 76 70 64 44 51 61 52 58 72 77 73 81 79 84 81 96 80 65 57 57 60 63 76 84 86 85 74 77 79 74 76 82 92 93 92 98 98 88 84 84 80 77 73 75 71 74 69 66 69 69 78 81
50 51 64 50 45 44 53 56 57 58 62 71 70 68 78 69 80 89 78 58 64 62 71 75 96 97 82 79 72 71 76 69 70 71 73 83 83 80 83 84 81 76 76 78 82 79 79 74 71 70 89 91 96 90
46 68 44 48 51 52 59 53 53 54 56 63 65 59 73 97 95 84 61 72 69 83 80 78 76 75 72 68 69 66 69 67 70 74 79 78 80 79 81 81 77 87 85 88 82 90 84 77 77 82 93 97 91 89
59 56 49 49 80 78 82 56 64 55 76 71 64 66 77 84 72 57 76 68 83 78 75 71 64 61 67 64 65 66 62 60 62 65 74 70 78 90 77 75 79 90 86 82 78 87 91 80 87 95 96 94 94 93
59 62 96 86 72 92 79 80 53 56 63 64 64 71 69 76 61 68 69 61 83 81 80 87 75 74 70 67 66 63 61 58 63 76 70 66 70 69 66 69 68 73 76 73 75 85 88 88 86 88 91 93 92 91
60 85 94 83 79 86 86 82 82 60 78 76 72 76 74 64 79 75 71 73 85 94 88 80 76 74 84 82 79 73 69 64 68 71 82 59 66 67 66 64 67 68 69 89 90 90 91 91 87 89 88 90 88 90
56 91 84 81 85 76 69 79 83 81 73 81 79 66 72 78 82 80 56 89 88 98 100 100 98 80 74 68 74 78 71 62 62 74 66 56 59 87 84 80 79 82 69 90 90 86 84 85 86 87 89 92 87 91
59 82 69 64 67 60 80 79 63 76 84 81 76 82 80 83 79 65 84 80 78 93 70 75 71 66 65 63 61 69 68 69 70 69 66 58 57 58 82 86 83 79 76 82 86 82 85 83 85 87 90 91 89 90
70 73 82 86 79 73 83 79 83 82 78 64 70 85 81 75 76 82 83 82 87 78 79 77 71 67 69 72 79 87 92 93 98 89 81 79 78 89 92 91 87 87 87 88 87 87 84 84 86 88 88 88 90 91
82 85 74 89 86 83 83 81 78 67 63 72 83 74 77 62 83 87 81 79 81 86 96 95 97 99 98 95 99 97 95 94 95 94 92 92 94 92 90 92 93 93 89 88 84 83 84 85 85 88 90 90 90 92
82 89 82 82 82 73 88 84 88 93 69 69 72 65 63 77 95 84 86 90 91 99 100 100 100 97 92 93 94 96 100 100 100 96 84 86 90 99 96 94 93 91 90 87 86 85 84 86 93 92 91 92 92 91
75 90 86 83 79 88 89 88 97 90 94 92 98 90 82 95 95 90 89 94 100 100 100 100 100 100 100 99 97 95 94 99 99 98 93 98 100 96 91 89 92 91 90 87 88 86 84 85 84 84 84 84 84 84
90 83 80 77 82 92 93 91 87 86 86 88 84 90 90 92 86 96 98 96 95 96 95 98 100 100 100 100 100 100 89 100 100 94 98 95 93 92 91 88 92 90 88 86 88 84 83 83 84 84 84 82 85 85
89 88 87 84 81 82 88 85 78 79 80 81 78 80 84 90 88 96 97 99 98 99 100 100 100 100 100 100 100 99 88 98 97 89 88 86 85 86 88 91 90 91 88 85 87 88 87 87 87 86 86 88 88 89